Wetterdaten: Mittwoch, 02.01.2019
Datum Zeit Temp. Aussen Temp. o. S. +5cm Feuchte Auss Luftdruck Regen Sonnenschein Regendauer Solar Windben Empfang
02.01.2019 00:00 4,3 C 3,3 C 2,8 C 86 % 1029,1 hPa 0,0 l/m 0 min 2 min 0 W/m 25,7 km/h (4 Bft) 74,47 %
02.01.2019 00:02 4,3 C 3,3 C 2,8 C 85 % 1029,2 hPa 0,0 l/m 0 min 2 min 0 W/m 16,1 km/h (3 Bft) 77,27 %
02.01.2019 00:04 4,2 C 3,3 C 2,8 C 85 % 1029,2 hPa 0,0 l/m 0 min 2 min 0 W/m 12,9 km/h (3 Bft) 70,21 %
02.01.2019 00:07 4,2 C 3,3 C 2,8 C 85 % 1029,1 hPa 0,0 l/m 0 min 3 min 0 W/m 16,1 km/h (3 Bft) 83,10 %
02.01.2019 00:08 4,2 C 3,3 C 2,8 C 85 % 1029,1 hPa 0,0 l/m 0 min 0 min 0 W/m 12,9 km/h (3 Bft) 95,83 %
02.01.2019 00:10 4,2 C 3,3 C 2,8 C 85 % 1029,1 hPa 0,0 l/m 0 min 0 min 0 W/m 25,7 km/h (4 Bft) 95,65 %
02.01.2019 00:12 4,2 C 3,3 C 2,8 C 85 % 1029,1 hPa 0,0 l/m 0 min 0 min 0 W/m 19,3 km/h (3 Bft) 87,23 %
02.01.2019 00:14 4,2 C 3,3 C 2,8 C 85 % 1029,1 hPa 0,0 l/m 0 min 0 min 0 W/m 12,9 km/h (3 Bft) 93,48 %
02.01.2019 00:16 4,1 C 3,3 C 2,8 C 85 % 1029,3 hPa 0,0 l/m 0 min 0 min 0 W/m 12,9 km/h (3 Bft) 97,87 %
02.01.2019 00:18 4,1 C 3,3 C 2,8 C 85 % 1029,3 hPa 0,0 l/m 0 min 0 min 0 W/m 12,9 km/h (3 Bft) 97,87 %
02.01.2019 00:20 4,1 C 3,3 C 2,8 C 85 % 1029,4 hPa 0,0 l/m 0 min 0 min 0 W/m 16,1 km/h (3 Bft) 95,74 %
02.01.2019 00:22 4,1 C 3,3 C 2,8 C 85 % 1029,3 hPa 0,0 l/m 0 min 0 min 0 W/m 19,3 km/h (3 Bft) 97,83 %
02.01.2019 00:24 4,1 C 3,3 C 2,8 C 85 % 1029,4 hPa 0,0 l/m 0 min 0 min 0 W/m 16,1 km/h (3 Bft) 100,00 %
02.01.2019 00:26 4,1 C 3,3 C 2,8 C 84 % 1029,4 hPa 0,0 l/m 0 min 0 min 0 W/m 19,3 km/h (3 Bft) 100,00 %
02.01.2019 00:28 4,0 C 3,3 C 2,8 C 84 % 1029,4 hPa 0,0 l/m 0 min 0 min 0 W/m 16,1 km/h (3 Bft) 95,74 %
02.01.2019 00:30 4,0 C 3,3 C 2,8 C 84 % 1029,4 hPa 0,0 l/m 0 min 0 min 0 W/m 22,5 km/h (4 Bft) 100,00 %
02.01.2019 00:32 4,0 C 3,3 C 2,8 C 84 % 1029,4 hPa 0,0 l/m 0 min 0 min 0 W/m 19,3 km/h (3 Bft) 95,74 %
02.01.2019 00:34 3,9 C 3,3 C 2,8 C 84 % 1029,4 hPa 0,0 l/m 0 min 0 min 0 W/m 16,1 km/h (3 Bft) 100,00 %
02.01.2019 00:36 3,9 C 3,3 C 2,8 C 84 % 1029,4 hPa 0,0 l/m 0 min 0 min 0 W/m 12,9 km/h (3 Bft) 100,00 %
02.01.2019 00:38 3,9 C 3,3 C 2,8 C 84 % 1029,4 hPa 0,0 l/m 0 min 0 min 0 W/m 12,9 km/h (3 Bft) 100,00 %
02.01.2019 00:40 3,9 C 3,3 C 2,8 C 84 % 1029,4 hPa 0,0 l/m 0 min 0 min 0 W/m 19,3 km/h (3 Bft) 97,87 %
02.01.2019 00:42 3,9 C 3,3 C 2,8 C 84 % 1029,5 hPa 0,0 l/m 0 min 0 min 0 W/m 16,1 km/h (3 Bft) 97,87 %
02.01.2019 00:44 3,9 C 3,3 C 2,8 C 84 % 1029,5 hPa 0,0 l/m 0 min 0 min 0 W/m 19,3 km/h (3 Bft) 100,00 %
02.01.2019 00:46 3,9 C 3,3 C 2,8 C 84 % 1029,7 hPa 0,0 l/m 0 min 0 min 0 W/m 16,1 km/h (3 Bft) 100,00 %
02.01.2019 00:48 3,9 C 3,3 C 2,8 C 84 % 1029,7 hPa 0,0 l/m 0 min 0 min 0 W/m 22,5 km/h (4 Bft) 100,00 %
02.01.2019 00:50 3,8 C 2,8 C 2,8 C 84 % 1029,8 hPa 0,0 l/m 0 min 0 min 0 W/m 19,3 km/h (3 Bft) 95,92 %
02.01.2019 00:52 3,8 C 2,8 C 2,2 C 84 % 1029,8 hPa 0,0 l/m 0 min 0 min 0 W/m 19,3 km/h (3 Bft) 95,74 %
02.01.2019 00:54 3,8 C 2,8 C 2,2 C 83 % 1029,6 hPa 0,0 l/m 0 min 0 min 0 W/m 12,9 km/h (3 Bft) 97,87 %
02.01.2019 00:56 3,8 C 2,8 C 2,2 C 83 % 1029,6 hPa 0,0 l/m 0 min 0 min 0 W/m 16,1 km/h (3 Bft) 97,87 %
02.01.2019 00:58 3,8 C 2,8 C 2,2 C 83 % 1029,7 hPa 0,0 l/m 0 min 0 min 0 W/m 12,9 km/h (3 Bft) 100,00 %
02.01.2019 01:00 3,7 C 2,8 C 2,2 C 83 % 1029,7 hPa 0,0 l/m 0 min 0 min 0 W/m 9,7 km/h (2 Bft) 100,00 %
02.01.2019 01:02 3,7 C 2,8 C 2,2 C 83 % 1029,8 hPa 0,0 l/m 0 min 0 min 0 W/m 12,9 km/h (3 Bft) 95,74 %
02.01.2019 01:04 3,7 C 2,8 C 2,2 C 83 % 1029,8 hPa 0,0 l/m 0 min 0 min 0 W/m 16,1 km/h (3 Bft) 97,87 %
02.01.2019 01:06 3,7 C 2,8 C 2,2 C 83 % 1029,8 hPa 0,0 l/m 0 min 0 min 0 W/m 12,9 km/h (3 Bft) 96,61 %
02.01.2019 01:08 3,7 C 2,8 C 2,2 C 83 % 1029,8 hPa 0,0 l/m 0 min 0 min 0 W/m 9,7 km/h (2 Bft) 94,29 %
02.01.2019 01:10 3,7 C 2,8 C 2,2 C 83 % 1029,8 hPa 0,0 l/m 0 min 0 min 0 W/m 12,9 km/h (3 Bft) 95,74 %
02.01.2019 01:12 3,6 C 2,8 C 2,2 C 84 % 1029,9 hPa 0,0 l/m 0 min 0 min 0 W/m 16,1 km/h (3 Bft) 100,00 %
02.01.2019 01:14 3,6 C 2,8 C 2,2 C 84 % 1029,9 hPa 0,0 l/m 0 min 0 min 0 W/m 9,7 km/h (2 Bft) 100,00 %
02.01.2019 01:16 3,6 C 2,8 C 2,2 C 84 % 1029,8 hPa 0,0 l/m 0 min 0 min 0 W/m 16,1 km/h (3 Bft) 95,74 %
02.01.2019 01:18 3,6 C 3,3 C 2,2 C 84 % 1029,9 hPa 0,0 l/m 0 min 0 min 0 W/m 12,9 km/h (3 Bft) 97,87 %
02.01.2019 01:20 3,6 C 3,3 C 2,8 C 84 % 1029,9 hPa 0,0 l/m 0 min 0 min 0 W/m 12,9 km/h (3 Bft) 95,74 %
02.01.2019 01:22 3,6 C 3,3 C 2,8 C 84 % 1030,0 hPa 0,0 l/m 0 min 0 min 0 W/m 12,9 km/h (3 Bft) 97,87 %
02.01.2019 01:24 3,6 C 3,3 C 2,8 C 84 % 1030,0 hPa 0,0 l/m 0 min 0 min 0 W/m 12,9 km/h (3 Bft) 97,83 %
02.01.2019 01:26 3,7 C 3,3 C 2,8 C 84 % 1030,0 hPa 0,0 l/m 0 min 0 min 0 W/m 9,7 km/h (2 Bft) 93,62 %
02.01.2019 01:28 3,7 C 3,3 C 2,8 C 84 % 1030,1 hPa 0,0 l/m 0 min 0 min 0 W/m 12,9 km/h (3 Bft) 97,87 %
02.01.2019 01:30 3,7 C 3,3 C 2,8 C 84 % 1030,0 hPa 0,0 l/m 0 min 0 min 0 W/m 19,3 km/h (3 Bft) 93,62 %
02.01.2019 01:32 3,7 C 3,3 C 2,8 C 84 % 1030,0 hPa 0,0 l/m 0 min 0 min 0 W/m 16,1 km/h (3 Bft) 97,87 %
02.01.2019 01:34 3,7 C 3,3 C 2,8 C 84 % 1029,9 hPa 0,0 l/m 0 min 0 min 0 W/m 16,1 km/h (3 Bft) 97,87 %
02.01.2019 01:36 3,7 C 2,8 C 2,2 C 84 % 1030,0 hPa 0,0 l/m 0 min 0 min 0 W/m 12,9 km/h (3 Bft) 98,28 %
02.01.2019 01:38 3,7 C 2,8 C 2,2 C 84 % 1030,0 hPa 0,0 l/m 0 min 0 min 0 W/m 16,1 km/h (3 Bft) 94,44 %
02.01.2019 01:40 3,7 C 2,8 C 2,2 C 84 % 1030,1 hPa 0,0 l/m 0 min 0 min 0 W/m 9,7 km/h (2 Bft) 91,49 %
02.01.2019 01:42 3,6 C 2,8 C 2,2 C 84 % 1030,0 hPa 0,0 l/m 0 min 0 min 0 W/m 12,9 km/h (3 Bft) 97,87 %
02.01.2019 01:44 3,6 C 2,8 C 2,2 C 84 % 1030,0 hPa 0,0 l/m 0 min 0 min 0 W/m 16,1 km/h (3 Bft) 97,87 %
02.01.2019 01:46 3,6 C 2,8 C 2,2 C 84 % 1030,1 hPa 0,0 l/m 0 min 0 min 0 W/m 9,7 km/h (2 Bft) 97,83 %
02.01.2019 01:48 3,6 C 2,8 C 2,2 C 83 % 1030,2 hPa 0,0 l/m 0 min 0 min 0 W/m 16,1 km/h (3 Bft) 97,87 %
02.01.2019 01:50 3,6 C 2,8 C 2,2 C 83 % 1030,1 hPa 0,0 l/m 0 min 0 min 0 W/m 12,9 km/h (3 Bft) 97,87 %
02.01.2019 01:52 3,6 C 2,8 C 2,2 C 83 % 1030,2 hPa 0,0 l/m 0 min 0 min 0 W/m 12,9 km/h (3 Bft) 97,87 %
02.01.2019 01:54 3,6 C 2,8 C 2,2 C 83 % 1030,2 hPa 0,0 l/m 0 min 0 min 0 W/m 12,9 km/h (3 Bft) 97,87 %
02.01.2019 01:56 3,6 C 2,8 C 2,2 C 83 % 1030,2 hPa 0,0 l/m 0 min 0 min 0 W/m 16,1 km/h (3 Bft) 97,87 %
02.01.2019 01:58 3,5 C 2,8 C 2,2 C 83 % 1030,2 hPa 0,0 l/m 0 min 0 min 0 W/m 9,7 km/h (2 Bft) 95,65 %
02.01.2019 02:00 3,5 C 2,8 C 2,2 C 83 % 1030,3 hPa 0,0 l/m 0 min 0 min 0 W/m 9,7 km/h (2 Bft) 97,87 %
02.01.2019 02:02 3,5 C 2,8 C 2,2 C 83 % 1030,3 hPa 0,0 l/m 0 min 0 min 0 W/m 9,7 km/h (2 Bft) 97,87 %
02.01.2019 02:04 3,5 C 2,8 C 2,2 C 83 % 1030,3 hPa 0,0 l/m 0 min 0 min 0 W/m 9,7 km/h (2 Bft) 95,74 %
02.01.2019 02:06 3,5 C 2,8 C 2,2 C 83 % 1030,3 hPa 0,0 l/m 0 min 0 min 0 W/m 12,9 km/h (3 Bft) 98,28 %
02.01.2019 02:08 3,5 C 2,8 C 2,2 C 83 % 1030,4 hPa 0,0 l/m 0 min 0 min 0 W/m 12,9 km/h (3 Bft) 97,22 %
02.01.2019 02:10 3,5 C 2,8 C 2,2 C 83 % 1030,4 hPa 0,0 l/m 0 min 0 min 0 W/m 12,9 km/h (3 Bft) 97,83 %
02.01.2019 02:12 3,4 C 2,8 C 2,2 C 84 % 1030,4 hPa 0,0 l/m 0 min 0 min 0 W/m 12,9 km/h (3 Bft) 95,74 %
02.01.2019 02:14 3,4 C 2,8 C 2,2 C 84 % 1030,4 hPa 0,0 l/m 0 min 0 min 0 W/m 12,9 km/h (3 Bft) 97,87 %
02.01.2019 02:16 3,4 C 2,8 C 2,2 C 83 % 1030,4 hPa 0,0 l/m 0 min 0 min 0 W/m 12,9 km/h (3 Bft) 97,87 %
02.01.2019 02:18 3,4 C 2,8 C 2,2 C 83 % 1030,4 hPa 0,0 l/m 0 min 0 min 0 W/m 9,7 km/h (2 Bft) 93,62 %
02.01.2019 02:20 3,4 C 2,8 C 2,2 C 83 % 1030,4 hPa 0,0 l/m 0 min 0 min 0 W/m 9,7 km/h (2 Bft) 95,74 %
02.01.2019 02:22 3,4 C 2,8 C 2,2 C 83 % 1030,4 hPa 0,0 l/m 0 min 0 min 0 W/m 9,7 km/h (2 Bft) 93,48 %
02.01.2019 02:24 3,4 C 2,8 C 2,2 C 84 % 1030,4 hPa 0,0 l/m 0 min 0 min 0 W/m 12,9 km/h (3 Bft) 95,74 %
02.01.2019 02:26 3,4 C 2,8 C 2,2 C 83 % 1030,4 hPa 0,0 l/m 0 min 0 min 0 W/m 9,7 km/h (2 Bft) 97,87 %
02.01.2019 02:28 3,4 C 2,8 C 2,2 C 83 % 1030,4 hPa 0,0 l/m 0 min 0 min 0 W/m 12,9 km/h (3 Bft) 97,87 %
02.01.2019 02:30 3,4 C 2,8 C 2,2 C 83 % 1030,4 hPa 0,0 l/m 0 min 0 min 0 W/m 9,7 km/h (2 Bft) 97,87 %
02.01.2019 02:32 3,4 C 2,8 C 2,2 C 84 % 1030,3 hPa 0,0 l/m 0 min 0 min 0 W/m 9,7 km/h (2 Bft) 97,83 %
02.01.2019 02:34 3,4 C 2,8 C 2,2 C 84 % 1030,5 hPa 0,0 l/m 0 min 0 min 0 W/m 16,1 km/h (3 Bft) 95,74 %
02.01.2019 02:36 3,4 C 2,8 C 2,2 C 84 % 1030,5 hPa 0,0 l/m 0 min 0 min 0 W/m 9,7 km/h (2 Bft) 96,61 %
02.01.2019 02:38 3,4 C 2,8 C 2,2 C 84 % 1030,6 hPa 0,0 l/m 0 min 0 min 0 W/m 9,7 km/h (2 Bft) 97,14 %
02.01.2019 02:40 3,4 C 2,8 C 2,2 C 84 % 1030,5 hPa 0,0 l/m 0 min 0 min 0 W/m 16,1 km/h (3 Bft) 97,87 %
02.01.2019 02:42 3,4 C 3,3 C 2,2 C 84 % 1030,6 hPa 0,0 l/m 0 min 0 min 0 W/m 12,9 km/h (3 Bft) 97,87 %
02.01.2019 02:44 3,4 C 3,3 C 2,2 C 84 % 1030,6 hPa 0,0 l/m 0 min 0 min 0 W/m 12,9 km/h (3 Bft) 95,74 %
02.01.2019 02:46 3,4 C 3,3 C 2,2 C 84 % 1030,6 hPa 0,0 l/m 0 min 0 min 0 W/m 12,9 km/h (3 Bft) 97,87 %
02.01.2019 02:48 3,4 C 3,3 C 2,2 C 84 % 1030,5 hPa 0,0 l/m 0 min 0 min 0 W/m 22,5 km/h (4 Bft) 97,87 %
02.01.2019 02:50 3,4 C 3,3 C 2,8 C 83 % 1030,5 hPa 0,0 l/m 0 min 0 min 0 W/m 29,0 km/h (5 Bft) 95,74 %
02.01.2019 02:52 3,4 C 3,3 C 2,2 C 84 % 1030,4 hPa 0,0 l/m 0 min 0 min 0 W/m 12,9 km/h (3 Bft) 93,62 %
02.01.2019 02:54 3,5 C 3,3 C 2,2 C 84 % 1030,4 hPa 0,0 l/m 0 min 0 min 0 W/m 12,9 km/h (3 Bft) 97,87 %
02.01.2019 02:56 3,5 C 3,3 C 2,8 C 84 % 1030,4 hPa 0,0 l/m 0 min 0 min 0 W/m 12,9 km/h (3 Bft) 95,65 %
02.01.2019 02:58 3,5 C 3,3 C 2,8 C 83 % 1030,5 hPa 0,0 l/m 0 min 0 min 0 W/m 16,1 km/h (3 Bft) 97,87 %
02.01.2019 03:00 3,6 C 3,3 C 2,8 C 83 % 1030,5 hPa 0,0 l/m 0 min 0 min 0 W/m 16,1 km/h (3 Bft) 97,87 %
02.01.2019 03:02 3,6 C 3,3 C 2,8 C 83 % 1030,5 hPa 0,0 l/m 0 min 0 min 0 W/m 19,3 km/h (3 Bft) 91,49 %
02.01.2019 03:04 3,6 C 3,3 C 2,8 C 83 % 1030,5 hPa 0,0 l/m 0 min 0 min 0 W/m 16,1 km/h (3 Bft) 95,74 %
02.01.2019 03:06 3,6 C 3,3 C 2,8 C 83 % 1030,5 hPa 0,0 l/m 0 min 0 min 0 W/m 19,3 km/h (3 Bft) 98,28 %
02.01.2019 03:08 3,6 C 3,3 C 2,8 C 83 % 1030,5 hPa 0,0 l/m 0 min 0 min 0 W/m 19,3 km/h (3 Bft) 91,43 %
02.01.2019 03:10 3,6 C 3,3 C 2,8 C 83 % 1030,4 hPa 0,0 l/m 0 min 0 min 0 W/m 16,1 km/h (3 Bft) 97,87 %
02.01.2019 03:12 3,6 C 3,3 C 2,8 C 83 % 1030,4 hPa 0,0 l/m 0 min 0 min 0 W/m 12,9 km/h (3 Bft) 93,62 %
02.01.2019 03:14 3,6 C 3,3 C 2,2 C 83 % 1030,5 hPa 0,0 l/m 0 min 0 min 0 W/m 16,1 km/h (3 Bft) 95,74 %
02.01.2019 03:16 3,6 C 2,8 C 2,2 C 83 % 1030,5 hPa 0,0 l/m 0 min 0 min 0 W/m 16,1 km/h (3 Bft) 97,87 %
02.01.2019 03:18 3,6 C 2,8 C 2,2 C 83 % 1030,6 hPa 0,0 l/m 0 min 0 min 0 W/m 12,9 km/h (3 Bft) 97,87 %
02.01.2019 03:20 3,6 C 2,8 C 2,2 C 83 % 1030,5 hPa 0,0 l/m 0 min 0 min 0 W/m 12,9 km/h (3 Bft) 93,48 %
02.01.2019 03:22 3,6 C 3,3 C 2,2 C 83 % 1030,6 hPa 0,0 l/m 0 min 0 min 0 W/m 12,9 km/h (3 Bft) 97,87 %
02.01.2019 03:24 3,6 C 3,3 C 2,2 C 83 % 1030,6 hPa 0,0 l/m 0 min 0 min 0 W/m 16,1 km/h (3 Bft) 97,87 %
02.01.2019 03:26 3,6 C 3,3 C 2,2 C 84 % 1030,7 hPa 0,0 l/m 0 min 0 min 0 W/m 22,5 km/h (4 Bft) 97,87 %
02.01.2019 03:28 3,6 C 3,3 C 2,8 C 84 % 1030,6 hPa 0,0 l/m 0 min 0 min 0 W/m 22,5 km/h (4 Bft) 97,87 %
02.01.2019 03:30 3,6 C 3,3 C 2,8 C 84 % 1030,7 hPa 0,0 l/m 0 min 0 min 0 W/m 12,9 km/h (3 Bft) 86,96 %
02.01.2019 03:32 3,6 C 3,3 C 2,8 C 84 % 1030,7 hPa 0,0 l/m 0 min 0 min 0 W/m 12,9 km/h (3 Bft) 72,34 %
02.01.2019 03:34 3,6 C 3,3 C 2,8 C 84 % 1030,7 hPa 0,0 l/m 0 min 0 min 0 W/m 9,7 km/h (2 Bft) 65,96 %
02.01.2019 03:36 3,6 C 3,3 C 2,8 C 84 % 1030,7 hPa 0,0 l/m 0 min 0 min 0 W/m 16,1 km/h (3 Bft) 78,72 %
02.01.2019 03:38 3,6 C 3,3 C 2,8 C 84 % 1030,7 hPa 0,0 l/m 0 min 0 min 0 W/m 19,3 km/h (3 Bft) 65,96 %
02.01.2019 03:40 3,6 C 3,3 C 2,8 C 84 % 1030,7 hPa 0,0 l/m 0 min 0 min 0 W/m 22,5 km/h (4 Bft) 72,34 %
02.01.2019 03:42 3,7 C 3,3 C 2,8 C 84 % 1030,8 hPa 0,0 l/m 0 min 0 min 0 W/m 19,3 km/h (3 Bft) 63,04 %
02.01.2019 03:44 3,7 C 3,3 C 2,8 C 84 % 1030,7 hPa 0,0 l/m 0 min 0 min 0 W/m 12,9 km/h (3 Bft) 78,72 %
02.01.2019 03:46 3,7 C 3,3 C 2,8 C 84 % 1030,7 hPa 0,0 l/m 0 min 0 min 0 W/m 19,3 km/h (3 Bft) 70,21 %
02.01.2019 03:48 3,7 C 3,3 C 2,8 C 84 % 1030,6 hPa 0,0 l/m 0 min 0 min 0 W/m 12,9 km/h (3 Bft) 89,36 %
02.01.2019 03:50 3,7 C 3,3 C 2,8 C 84 % 1030,8 hPa 0,0 l/m 0 min 0 min 0 W/m 16,1 km/h (3 Bft) 70,21 %
02.01.2019 03:52 3,7 C 3,3 C 2,8 C 84 % 1030,8 hPa 0,0 l/m 0 min 0 min 0 W/m 19,3 km/h (3 Bft) 87,23 %
02.01.2019 03:54 3,7 C 3,3 C 2,8 C 84 % 1030,8 hPa 0,0 l/m 0 min 0 min 0 W/m 16,1 km/h (3 Bft) 80,43 %
02.01.2019 03:56 3,7 C 3,3 C 2,8 C 85 % 1030,7 hPa 0,0 l/m 0 min 0 min 0 W/m 16,1 km/h (3 Bft) 85,11 %
02.01.2019 03:58 3,8 C 3,3 C 2,8 C 85 % 1030,7 hPa 0,0 l/m 0 min 0 min 0 W/m 16,1 km/h (3 Bft) 82,98 %
02.01.2019 04:00 3,8 C 3,3 C 2,8 C 85 % 1030,7 hPa 0,0 l/m 0 min 0 min 0 W/m 16,1 km/h (3 Bft) 85,11 %
02.01.2019 04:05 3,8 C 3,3 C 2,8 C 85 % 1030,6 hPa 0,0 l/m 0 min 0 min 0 W/m 16,1 km/h (3 Bft) 75,47 %
02.01.2019 04:06 3,8 C 3,3 C 2,8 C 85 % 1030,5 hPa 0,0 l/m 0 min 0 min 0 W/m 9,7 km/h (2 Bft) 91,30 %
02.01.2019 04:08 3,8 C 3,3 C 2,8 C 85 % 1030,6 hPa 0,0 l/m 0 min 0 min 0 W/m 16,1 km/h (3 Bft) 91,49 %
02.01.2019 04:14 3,8 C 3,3 C 2,8 C 85 % 1030,6 hPa 0,0 l/m 0 min 0 min 0 W/m 12,9 km/h (3 Bft) 75,00 %
02.01.2019 04:16 3,8 C 3,3 C 2,8 C 85 % 1030,6 hPa 0,0 l/m 0 min 0 min 0 W/m 12,9 km/h (3 Bft) 91,30 %
02.01.2019 04:18 3,8 C 3,3 C 2,8 C 85 % 1030,6 hPa 0,0 l/m 0 min 0 min 0 W/m 19,3 km/h (3 Bft) 97,87 %
02.01.2019 04:20 3,8 C 3,3 C 2,8 C 85 % 1030,7 hPa 0,0 l/m 0 min 0 min 0 W/m 12,9 km/h (3 Bft) 97,87 %
02.01.2019 04:22 3,8 C 3,3 C 2,8 C 85 % 1030,7 hPa 0,0 l/m 0 min 0 min 0 W/m 12,9 km/h (3 Bft) 95,74 %
02.01.2019 04:24 3,8 C 3,3 C 2,8 C 85 % 1030,7 hPa 0,0 l/m 0 min 0 min 0 W/m 16,1 km/h (3 Bft) 97,87 %
02.01.2019 04:26 3,8 C 3,3 C 2,8 C 85 % 1030,7 hPa 0,0 l/m 0 min 0 min 0 W/m 12,9 km/h (3 Bft) 95,74 %
02.01.2019 04:28 3,8 C 3,3 C 2,8 C 85 % 1030,7 hPa 0,0 l/m 0 min 0 min 0 W/m 16,1 km/h (3 Bft) 95,65 %
02.01.2019 04:30 3,8 C 3,3 C 2,8 C 85 % 1030,8 hPa 0,0 l/m 0 min 0 min 0 W/m 16,1 km/h (3 Bft) 97,87 %
02.01.2019 04:32 3,8 C 3,3 C 2,8 C 85 % 1030,9 hPa 0,0 l/m 0 min 0 min 0 W/m 19,3 km/h (3 Bft) 95,74 %
02.01.2019 04:34 3,8 C 3,3 C 2,8 C 85 % 1030,9 hPa 0,0 l/m 0 min 0 min 0 W/m 12,9 km/h (3 Bft) 89,36 %
02.01.2019 04:36 3,8 C 3,3 C 2,8 C 85 % 1030,9 hPa 0,0 l/m 0 min 0 min 0 W/m 19,3 km/h (3 Bft) 97,87 %
02.01.2019 04:38 3,8 C 3,3 C 2,8 C 85 % 1030,9 hPa 0,0 l/m 0 min 0 min 0 W/m 16,1 km/h (3 Bft) 97,87 %
02.01.2019 04:40 3,8 C 3,3 C 2,8 C 85 % 1030,8 hPa 0,0 l/m 0 min 0 min 0 W/m 9,7 km/h (2 Bft) 95,65 %
02.01.2019 04:42 3,8 C 3,3 C 2,8 C 85 % 1030,9 hPa 0,0 l/m 0 min 0 min 0 W/m 16,1 km/h (3 Bft) 95,74 %
02.01.2019 04:44 3,8 C 3,3 C 2,8 C 85 % 1030,8 hPa 0,0 l/m 0 min 0 min 0 W/m 25,7 km/h (4 Bft) 93,62 %
02.01.2019 04:46 3,8 C 3,3 C 2,8 C 85 % 1030,8 hPa 0,0 l/m 0 min 0 min 0 W/m 12,9 km/h (3 Bft) 97,87 %
02.01.2019 04:48 3,8 C 3,3 C 2,8 C 85 % 1030,9 hPa 0,0 l/m 0 min 0 min 0 W/m 12,9 km/h (3 Bft) 80,85 %
02.01.2019 04:50 3,8 C 3,3 C 2,8 C 85 % 1030,8 hPa 0,0 l/m 0 min 0 min 0 W/m 25,7 km/h (4 Bft) 87,23 %
02.01.2019 04:52 3,8 C 3,3 C 2,8 C 85 % 1030,8 hPa 0,0 l/m 0 min 0 min 0 W/m 19,3 km/h (3 Bft) 89,13 %
02.01.2019 04:54 3,8 C 3,3 C 2,8 C 85 % 1030,9 hPa 0,0 l/m 0 min 0 min 0 W/m 12,9 km/h (3 Bft) 78,72 %
02.01.2019 04:56 3,8 C 3,3 C 2,8 C 85 % 1030,9 hPa 0,0 l/m 0 min 0 min 0 W/m 16,1 km/h (3 Bft) 87,23 %
02.01.2019 04:58 3,8 C 3,3 C 2,8 C 85 % 1031,0 hPa 0,0 l/m 0 min 0 min 0 W/m 12,9 km/h (3 Bft) 85,11 %
02.01.2019 05:00 3,8 C 3,3 C 2,8 C 85 % 1031,0 hPa 0,0 l/m 0 min 0 min 0 W/m 19,3 km/h (3 Bft) 93,62 %
02.01.2019 05:02 3,8 C 3,3 C 2,8 C 85 % 1030,9 hPa 0,0 l/m 0 min 0 min 0 W/m 12,9 km/h (3 Bft) 91,49 %
02.01.2019 05:04 3,8 C 3,3 C 2,8 C 85 % 1030,9 hPa 0,0 l/m 0 min 0 min 0 W/m 16,1 km/h (3 Bft) 93,48 %
02.01.2019 05:05 3,8 C 3,3 C 2,8 C 85 % 1030,8 hPa 0,0 l/m 0 min 0 min 0 W/m 16,1 km/h (3 Bft) 93,86 %
02.01.2019 05:10 3,8 C 3,3 C 2,8 C 85 % 1030,8 hPa 0,0 l/m 0 min 0 min 0 W/m 19,3 km/h (3 Bft) 98,25 %
02.01.2019 05:12 3,8 C 3,3 C 2,8 C 85 % 1030,8 hPa 0,0 l/m 0 min 0 min 0 W/m 9,7 km/h (2 Bft) 100,00 %
02.01.2019 05:14 3,8 C 3,3 C 2,8 C 85 % 1030,9 hPa 0,0 l/m 0 min 0 min 0 W/m 16,1 km/h (3 Bft) 97,62 %
02.01.2019 05:16 3,8 C 3,3 C 2,8 C 85 % 1030,9 hPa 0,0 l/m 0 min 0 min 0 W/m 16,1 km/h (3 Bft) 95,74 %
02.01.2019 05:18 3,8 C 3,3 C 2,8 C 85 % 1030,9 hPa 0,0 l/m 0 min 0 min 0 W/m 12,9 km/h (3 Bft) 95,92 %
02.01.2019 05:20 3,8 C 3,3 C 2,8 C 85 % 1030,9 hPa 0,0 l/m 0 min 0 min 0 W/m 12,9 km/h (3 Bft) 97,87 %
02.01.2019 05:22 3,8 C 3,3 C 2,8 C 85 % 1030,9 hPa 0,0 l/m 0 min 0 min 0 W/m 12,9 km/h (3 Bft) 97,87 %
02.01.2019 05:24 3,8 C 3,3 C 2,8 C 85 % 1030,9 hPa 0,0 l/m 0 min 0 min 0 W/m 16,1 km/h (3 Bft) 95,74 %
02.01.2019 05:26 3,8 C 3,3 C 2,8 C 85 % 1030,8 hPa 0,0 l/m 0 min 0 min 0 W/m 22,5 km/h (4 Bft) 95,74 %
02.01.2019 05:28 3,8 C 3,3 C 2,8 C 85 % 1030,8 hPa 0,0 l/m 0 min 0 min 0 W/m 16,1 km/h (3 Bft) 91,49 %
02.01.2019 05:30 3,8 C 3,3 C 2,8 C 85 % 1030,9 hPa 0,0 l/m 0 min 0 min 0 W/m 19,3 km/h (3 Bft) 95,65 %
02.01.2019 05:32 3,8 C 3,3 C 2,8 C 85 % 1030,8 hPa 0,0 l/m 0 min 0 min 0 W/m 12,9 km/h (3 Bft) 93,62 %
02.01.2019 05:34 3,8 C 3,3 C 2,8 C 85 % 1030,8 hPa 0,0 l/m 0 min 0 min 0 W/m 16,1 km/h (3 Bft) 97,87 %
02.01.2019 05:36 3,8 C 3,3 C 2,8 C 85 % 1030,8 hPa 0,0 l/m 0 min 0 min 0 W/m 16,1 km/h (3 Bft) 97,96 %
02.01.2019 05:38 3,8 C 3,3 C 2,8 C 85 % 1030,8 hPa 0,0 l/m 0 min 0 min 0 W/m 12,9 km/h (3 Bft) 95,74 %
02.01.2019 05:40 3,8 C 3,3 C 2,8 C 85 % 1030,9 hPa 0,0 l/m 0 min 0 min 0 W/m 12,9 km/h (3 Bft) 100,00 %
02.01.2019 05:42 3,8 C 3,3 C 2,8 C 85 % 1030,8 hPa 0,0 l/m 0 min 0 min 0 W/m 16,1 km/h (3 Bft) 95,74 %
02.01.2019 05:44 3,8 C 3,3 C 2,8 C 85 % 1030,9 hPa 0,0 l/m 0 min 0 min 0 W/m 22,5 km/h (4 Bft) 97,83 %
02.01.2019 05:46 3,8 C 3,3 C 2,8 C 85 % 1031,0 hPa 0,0 l/m 0 min 0 min 0 W/m 12,9 km/h (3 Bft) 97,87 %
02.01.2019 05:48 3,8 C 3,3 C 2,8 C 85 % 1031,0 hPa 0,0 l/m 0 min 0 min 0 W/m 12,9 km/h (3 Bft) 100,00 %
02.01.2019 05:50 3,8 C 3,3 C 2,8 C 85 % 1031,0 hPa 0,0 l/m 0 min 0 min 0 W/m 16,1 km/h (3 Bft) 97,62 %
02.01.2019 05:52 3,8 C 3,3 C 2,8 C 85 % 1031,0 hPa 0,0 l/m 0 min 0 min 0 W/m 9,7 km/h (2 Bft) 97,87 %
02.01.2019 05:54 3,8 C 3,3 C 2,8 C 85 % 1030,9 hPa 0,0 l/m 0 min 0 min 0 W/m 12,9 km/h (3 Bft) 100,00 %
02.01.2019 05:56 3,8 C 3,3 C 2,8 C 85 % 1030,9 hPa 0,0 l/m 0 min 0 min 0 W/m 16,1 km/h (3 Bft) 95,92 %
02.01.2019 05:58 3,8 C 3,3 C 2,8 C 85 % 1031,1 hPa 0,0 l/m 0 min 0 min 0 W/m 9,7 km/h (2 Bft) 95,74 %
02.01.2019 06:00 3,8 C 3,3 C 2,8 C 85 % 1031,1 hPa 0,0 l/m 0 min 0 min 0 W/m 12,9 km/h (3 Bft) 97,87 %
02.01.2019 06:02 3,8 C 3,3 C 2,8 C 85 % 1031,2 hPa 0,0 l/m 0 min 0 min 0 W/m 12,9 km/h (3 Bft) 100,00 %
02.01.2019 06:04 3,8 C 3,3 C 2,8 C 85 % 1031,2 hPa 0,0 l/m 0 min 0 min 0 W/m 12,9 km/h (3 Bft) 85,71 %
02.01.2019 06:08 3,8 C 3,3 C 2,8 C 85 % 1031,1 hPa 0,0 l/m 0 min 0 min 0 W/m 12,9 km/h (3 Bft) 91,49 %
02.01.2019 06:10 3,8 C 3,3 C 2,8 C 85 % 1031,2 hPa 0,0 l/m 0 min 0 min 0 W/m 12,9 km/h (3 Bft) 89,36 %
02.01.2019 06:12 3,8 C 3,3 C 2,8 C 85 % 1031,0 hPa 0,0 l/m 0 min 0 min 0 W/m 9,7 km/h (2 Bft) 93,62 %
02.01.2019 06:14 3,8 C 3,3 C 2,8 C 85 % 1031,0 hPa 0,0 l/m 0 min 0 min 0 W/m 22,5 km/h (4 Bft) 93,62 %
02.01.2019 06:16 3,8 C 3,3 C 2,8 C 85 % 1031,0 hPa 0,0 l/m 0 min 0 min 0 W/m 19,3 km/h (3 Bft) 87,76 %
02.01.2019 06:18 3,8 C 3,3 C 2,8 C 85 % 1031,0 hPa 0,0 l/m 0 min 0 min 0 W/m 19,3 km/h (3 Bft) 95,74 %
02.01.2019 06:20 3,8 C 3,3 C 2,8 C 85 % 1030,8 hPa 0,0 l/m 0 min 0 min 0 W/m 9,7 km/h (2 Bft) 91,49 %
02.01.2019 06:22 3,8 C 3,3 C 2,8 C 85 % 1031,0 hPa 0,0 l/m 0 min 0 min 0 W/m 12,9 km/h (3 Bft) 95,83 %
02.01.2019 06:24 3,7 C 2,8 C 2,2 C 85 % 1031,1 hPa 0,0 l/m 0 min 0 min 0 W/m 9,7 km/h (2 Bft) 95,74 %
02.01.2019 06:26 3,7 C 2,8 C 2,2 C 85 % 1031,1 hPa 0,0 l/m 0 min 0 min 0 W/m 16,1 km/h (3 Bft) 97,87 %
02.01.2019 06:28 3,7 C 2,8 C 2,2 C 85 % 1031,2 hPa 0,0 l/m 0 min 0 min 0 W/m 22,5 km/h (4 Bft) 97,62 %
02.01.2019 06:30 3,7 C 3,3 C 2,8 C 86 % 1031,3 hPa 0,0 l/m 0 min 0 min 0 W/m 38,6 km/h (5 Bft) 84,00 %
02.01.2019 06:32 3,7 C 3,3 C 2,8 C 86 % 1031,3 hPa 0,0 l/m 0 min 0 min 0 W/m 22,5 km/h (4 Bft) 95,74 %
02.01.2019 06:34 3,7 C 3,3 C 2,8 C 86 % 1031,3 hPa 0,0 l/m 0 min 0 min 0 W/m 16,1 km/h (3 Bft) 95,74 %
02.01.2019 06:36 3,7 C 3,3 C 2,8 C 86 % 1031,3 hPa 0,0 l/m 0 min 0 min 0 W/m 19,3 km/h (3 Bft) 95,83 %
02.01.2019 06:38 3,7 C 3,3 C 2,8 C 86 % 1031,3 hPa 0,0 l/m 0 min 0 min 0 W/m 22,5 km/h (4 Bft) 93,62 %
02.01.2019 06:40 3,7 C 3,3 C 2,8 C 86 % 1031,3 hPa 0,0 l/m 0 min 0 min 0 W/m 12,9 km/h (3 Bft) 95,74 %
02.01.2019 06:42 3,7 C 3,3 C 2,8 C 86 % 1031,3 hPa 0,0 l/m 0 min 0 min 0 W/m 16,1 km/h (3 Bft) 97,83 %
02.01.2019 06:44 3,7 C 3,3 C 2,8 C 86 % 1031,3 hPa 0,0 l/m 0 min 0 min 0 W/m 12,9 km/h (3 Bft) 95,74 %
02.01.2019 06:46 3,7 C 3,3 C 2,8 C 86 % 1031,4 hPa 0,0 l/m 0 min 0 min 0 W/m 9,7 km/h (2 Bft) 95,74 %
02.01.2019 06:48 3,7 C 2,8 C 2,2 C 86 % 1031,4 hPa 0,0 l/m 0 min 0 min 0 W/m 16,1 km/h (3 Bft) 93,02 %
02.01.2019 06:50 3,7 C 2,8 C 2,2 C 86 % 1031,5 hPa 0,0 l/m 0 min 0 min 0 W/m 12,9 km/h (3 Bft) 93,62 %
02.01.2019 06:52 3,7 C 2,8 C 2,2 C 86 % 1031,3 hPa 0,0 l/m 0 min 0 min 0 W/m 19,3 km/h (3 Bft) 95,65 %
02.01.2019 06:54 3,7 C 3,3 C 2,2 C 86 % 1031,3 hPa 0,0 l/m 0 min 0 min 0 W/m 22,5 km/h (4 Bft) 93,62 %
02.01.2019 06:56 3,7 C 3,3 C 2,8 C 86 % 1031,4 hPa 0,0 l/m 0 min 0 min 0 W/m 16,1 km/h (3 Bft) 95,74 %
02.01.2019 06:58 3,7 C 3,3 C 2,2 C 87 % 1031,4 hPa 0,0 l/m 0 min 0 min 0 W/m 12,9 km/h (3 Bft) 95,74 %
02.01.2019 07:00 3,7 C 3,3 C 2,2 C 87 % 1031,4 hPa 0,0 l/m 0 min 0 min 0 W/m 16,1 km/h (3 Bft) 89,36 %
02.01.2019 07:02 3,7 C 3,3 C 2,2 C 87 % 1031,4 hPa 0,0 l/m 0 min 0 min 0 W/m 12,9 km/h (3 Bft) 95,74 %
02.01.2019 07:04 3,7 C 2,8 C 2,2 C 87 % 1031,4 hPa 0,0 l/m 0 min 0 min 0 W/m 12,9 km/h (3 Bft) 95,92 %
02.01.2019 07:06 3,7 C 2,8 C 2,2 C 87 % 1031,4 hPa 0,0 l/m 0 min 0 min 0 W/m 9,7 km/h (2 Bft) 91,67 %
02.01.2019 07:08 3,7 C 2,8 C 2,2 C 87 % 1031,4 hPa 0,0 l/m 0 min 0 min 0 W/m 19,3 km/h (3 Bft) 95,74 %
02.01.2019 07:10 3,7 C 2,8 C 2,2 C 87 % 1031,4 hPa 0,0 l/m 0 min 0 min 0 W/m 9,7 km/h (2 Bft) 95,74 %
02.01.2019 07:12 3,6 C 2,8 C 2,2 C 87 % 1031,4 hPa 0,0 l/m 0 min 0 min 0 W/m 22,5 km/h (4 Bft) 95,74 %
02.01.2019 07:14 3,6 C 2,8 C 2,2 C 87 % 1031,4 hPa 0,0 l/m 0 min 0 min 0 W/m 12,9 km/h (3 Bft) 95,74 %
02.01.2019 07:16 3,6 C 2,8 C 2,2 C 87 % 1031,5 hPa 0,0 l/m 0 min 0 min 0 W/m 19,3 km/h (3 Bft) 93,62 %
02.01.2019 07:18 3,6 C 2,8 C 2,2 C 87 % 1031,5 hPa 0,0 l/m 0 min 0 min 0 W/m 9,7 km/h (2 Bft) 95,65 %
02.01.2019 07:20 3,6 C 2,8 C 2,2 C 87 % 1031,5 hPa 0,0 l/m 0 min 0 min 0 W/m 9,7 km/h (2 Bft) 91,49 %
02.01.2019 07:22 3,6 C 2,8 C 2,2 C 87 % 1031,6 hPa 0,0 l/m 0 min 0 min 0 W/m 9,7 km/h (2 Bft) 90,70 %
02.01.2019 07:24 3,6 C 2,8 C 2,2 C 87 % 1031,6 hPa 0,0 l/m 0 min 0 min 0 W/m 9,7 km/h (2 Bft) 87,23 %
02.01.2019 07:26 3,5 C 2,8 C 2,2 C 87 % 1031,6 hPa 0,0 l/m 0 min 0 min 0 W/m 6,4 km/h (2 Bft) 98,04 %
02.01.2019 07:28 3,5 C 2,8 C 2,2 C 87 % 1031,6 hPa 0,0 l/m 0 min 0 min 0 W/m 9,7 km/h (2 Bft) 95,92 %
02.01.2019 07:30 3,5 C 2,8 C 2,2 C 87 % 1031,6 hPa 0,0 l/m 0 min 0 min 0 W/m 16,1 km/h (3 Bft) 97,87 %
02.01.2019 07:32 3,4 C 2,8 C 2,2 C 87 % 1031,6 hPa 0,0 l/m 0 min 0 min 0 W/m 12,9 km/h (3 Bft) 89,36 %
02.01.2019 07:34 3,4 C 2,8 C 2,2 C 87 % 1031,7 hPa 0,0 l/m 0 min 0 min 0 W/m 9,7 km/h (2 Bft) 97,87 %
02.01.2019 07:36 3,4 C 2,8 C 2,2 C 87 % 1031,7 hPa 0,0 l/m 0 min 0 min 0 W/m 6,4 km/h (2 Bft) 93,62 %
02.01.2019 07:38 3,4 C 2,8 C 2,2 C 87 % 1031,6 hPa 0,0 l/m 0 min 0 min 0 W/m 9,7 km/h (2 Bft) 97,87 %
02.01.2019 07:40 3,4 C 2,2 C 2,2 C 87 % 1031,6 hPa 0,0 l/m 0 min 0 min 0 W/m 12,9 km/h (3 Bft) 95,65 %
02.01.2019 07:42 3,3 C 2,2 C 1,7 C 87 % 1031,7 hPa 0,0 l/m 0 min 0 min 0 W/m 9,7 km/h (2 Bft) 95,74 %
02.01.2019 07:44 3,3 C 2,2 C 2,2 C 87 % 1031,8 hPa 0,0 l/m 0 min 0 min 0 W/m 12,9 km/h (3 Bft) 97,87 %
02.01.2019 07:46 3,3 C 2,2 C 2,2 C 87 % 1031,7 hPa 0,0 l/m 0 min 0 min 0 W/m 9,7 km/h (2 Bft) 97,87 %
02.01.2019 07:48 3,3 C 2,8 C 2,2 C 87 % 1031,7 hPa 0,0 l/m 0 min 0 min 0 W/m 12,9 km/h (3 Bft) 97,87 %
02.01.2019 07:50 3,3 C 2,8 C 2,2 C 87 % 1031,7 hPa 0,0 l/m 0 min 0 min 0 W/m 9,7 km/h (2 Bft) 93,62 %
02.01.2019 07:52 3,3 C 2,8 C 2,2 C 87 % 1031,7 hPa 0,0 l/m 0 min 0 min 0 W/m 6,4 km/h (2 Bft) 97,14 %
02.01.2019 07:54 3,2 C 2,8 C 2,2 C 87 % 1031,8 hPa 0,0 l/m 0 min 0 min 0 W/m 9,7 km/h (2 Bft) 98,15 %
02.01.2019 07:56 3,2 C 2,8 C 2,2 C 88 % 1031,8 hPa 0,0 l/m 0 min 0 min 0 W/m 9,7 km/h (2 Bft) 95,74 %
02.01.2019 07:58 3,3 C 2,8 C 2,2 C 88 % 1031,8 hPa 0,0 l/m 0 min 0 min 0 W/m 9,7 km/h (2 Bft) 97,87 %
02.01.2019 08:00 3,3 C 2,8 C 2,2 C 88 % 1031,8 hPa 0,0 l/m 0 min 0 min 0 W/m 19,3 km/h (3 Bft) 95,92 %
02.01.2019 08:02 3,3 C 2,8 C 2,2 C 88 % 1031,9 hPa 0,0 l/m 0 min 0 min 0 W/m 9,7 km/h (2 Bft) 97,87 %
02.01.2019 08:04 3,3 C 2,8 C 2,2 C 88 % 1031,9 hPa 0,0 l/m 0 min 0 min 0 W/m 16,1 km/h (3 Bft) 97,92 %
02.01.2019 08:06 3,3 C 2,8 C 2,2 C 88 % 1031,9 hPa 0,0 l/m 0 min 0 min 0 W/m 19,3 km/h (3 Bft) 97,87 %
02.01.2019 08:08 3,3 C 2,8 C 2,2 C 88 % 1031,9 hPa 0,0 l/m 0 min 0 min 0 W/m 12,9 km/h (3 Bft) 93,62 %
02.01.2019 08:10 3,3 C 2,8 C 2,2 C 89 % 1032,0 hPa 0,0 l/m 0 min 0 min 0 W/m 12,9 km/h (3 Bft) 91,49 %
02.01.2019 08:12 3,3 C 2,8 C 2,2 C 89 % 1032,1 hPa 0,0 l/m 0 min 0 min 0 W/m 9,7 km/h (2 Bft) 97,14 %
02.01.2019 08:14 3,3 C 2,8 C 2,2 C 89 % 1032,1 hPa 0,0 l/m 0 min 0 min 0 W/m 16,1 km/h (3 Bft) 94,44 %
02.01.2019 08:16 3,4 C 2,8 C 2,2 C 89 % 1032,0 hPa 0,0 l/m 0 min 0 min 0 W/m 12,9 km/h (3 Bft) 95,74 %
02.01.2019 08:18 3,4 C 3,3 C 2,2 C 89 % 1032,0 hPa 0,0 l/m 0 min 0 min 0 W/m 12,9 km/h (3 Bft) 97,87 %
02.01.2019 08:20 3,4 C 3,3 C 2,2 C 89 % 1032,1 hPa 0,0 l/m 0 min 0 min 0 W/m 16,1 km/h (3 Bft) 100,00 %
02.01.2019 08:22 3,4 C 3,3 C 2,2 C 89 % 1032,1 hPa 0,0 l/m 0 min 0 min 0 W/m 16,1 km/h (3 Bft) 93,62 %
02.01.2019 08:24 3,4 C 3,3 C 2,2 C 89 % 1032,2 hPa 0,0 l/m 0 min 0 min 0 W/m 16,1 km/h (3 Bft) 97,96 %
02.01.2019 08:26 3,4 C 3,3 C 2,2 C 89 % 1032,2 hPa 0,0 l/m 0 min 0 min 0 W/m 12,9 km/h (3 Bft) 97,92 %
02.01.2019 08:28 3,4 C 3,3 C 2,8 C 89 % 1032,2 hPa 0,0 l/m 0 min 0 min 0 W/m 22,5 km/h (4 Bft) 97,87 %
02.01.2019 08:30 3,5 C 3,3 C 2,8 C 89 % 1032,2 hPa 0,0 l/m 0 min 0 min 0 W/m 19,3 km/h (3 Bft) 100,00 %
02.01.2019 08:32 3,5 C 3,3 C 2,8 C 89 % 1032,3 hPa 0,0 l/m 0 min 0 min 0 W/m 12,9 km/h (3 Bft) 100,00 %
02.01.2019 08:34 3,5 C 3,3 C 2,8 C 89 % 1032,3 hPa 0,0 l/m 0 min 0 min 0 W/m 12,9 km/h (3 Bft) 97,87 %
02.01.2019 08:36 3,5 C 3,3 C 2,8 C 89 % 1032,3 hPa 0,0 l/m 0 min 0 min 0 W/m 16,1 km/h (3 Bft) 98,31 %
02.01.2019 08:38 3,6 C 3,3 C 2,2 C 89 % 1032,4 hPa 0,0 l/m 0 min 0 min 0 W/m 9,7 km/h (2 Bft) 100,00 %
02.01.2019 08:40 3,6 C 3,3 C 2,8 C 89 % 1032,4 hPa 0,0 l/m 0 min 0 min 0 W/m 19,3 km/h (3 Bft) 100,00 %
02.01.2019 08:42 3,6 C 3,3 C 2,8 C 89 % 1032,4 hPa 0,0 l/m 0 min 0 min 0 W/m 9,7 km/h (2 Bft) 100,00 %
02.01.2019 08:44 3,6 C 3,3 C 2,8 C 89 % 1032,5 hPa 0,0 l/m 0 min 0 min 2 W/m 16,1 km/h (3 Bft) 100,00 %
02.01.2019 08:46 3,6 C 3,3 C 2,8 C 89 % 1032,5 hPa 0,0 l/m 0 min 0 min 5 W/m 12,9 km/h (3 Bft) 100,00 %
02.01.2019 08:48 3,6 C 3,3 C 2,8 C 89 % 1032,6 hPa 0,0 l/m 0 min 0 min 5 W/m 12,9 km/h (3 Bft) 100,00 %
02.01.2019 08:50 3,6 C 3,3 C 2,2 C 89 % 1032,6 hPa 0,0 l/m 0 min 0 min 5 W/m 16,1 km/h (3 Bft) 100,00 %
02.01.2019 08:52 3,6 C 2,8 C 2,2 C 89 % 1032,6 hPa 0,0 l/m 0 min 0 min 7 W/m 9,7 km/h (2 Bft) 97,83 %
02.01.2019 08:54 3,6 C 2,8 C 2,2 C 89 % 1032,6 hPa 0,0 l/m 0 min 0 min 10 W/m 22,5 km/h (4 Bft) 100,00 %
02.01.2019 08:56 3,6 C 2,8 C 2,2 C 89 % 1032,6 hPa 0,0 l/m 0 min 0 min 14 W/m 16,1 km/h (3 Bft) 100,00 %
02.01.2019 08:58 3,6 C 3,3 C 2,2 C 89 % 1032,6 hPa 0,0 l/m 0 min 0 min 11 W/m 16,1 km/h (3 Bft) 97,87 %
02.01.2019 09:00 3,6 C 3,3 C 2,8 C 89 % 1032,6 hPa 0,0 l/m 0 min 0 min 8 W/m 16,1 km/h (3 Bft) 100,00 %
02.01.2019 09:02 3,6 C 3,3 C 2,8 C 89 % 1032,6 hPa 0,0 l/m 0 min 0 min 8 W/m 16,1 km/h (3 Bft) 100,00 %
02.01.2019 09:04 3,6 C 3,3 C 2,8 C 89 % 1032,6 hPa 0,0 l/m 0 min 0 min 9 W/m 29,0 km/h (5 Bft) 95,65 %
02.01.2019 09:06 3,7 C 3,3 C 2,8 C 90 % 1032,6 hPa 0,0 l/m 0 min 0 min 10 W/m 19,3 km/h (3 Bft) 100,00 %
02.01.2019 09:08 3,7 C 3,3 C 2,8 C 90 % 1032,6 hPa 0,0 l/m 0 min 0 min 11 W/m 16,1 km/h (3 Bft) 97,87 %
02.01.2019 09:10 3,7 C 3,3 C 2,8 C 90 % 1032,6 hPa 0,0 l/m 0 min 0 min 12 W/m 12,9 km/h (3 Bft) 100,00 %
02.01.2019 09:12 3,7 C 3,3 C 2,8 C 90 % 1032,6 hPa 0,0 l/m 0 min 0 min 14 W/m 12,9 km/h (3 Bft) 96,23 %
02.01.2019 09:14 3,7 C 3,3 C 2,8 C 90 % 1032,6 hPa 0,0 l/m 0 min 0 min 13 W/m 16,1 km/h (3 Bft) 98,00 %
02.01.2019 09:16 3,7 C 3,3 C 2,8 C 90 % 1032,7 hPa 0,0 l/m 0 min 0 min 13 W/m 22,5 km/h (4 Bft) 100,00 %
02.01.2019 09:18 3,7 C 3,3 C 2,8 C 90 % 1032,6 hPa 0,0 l/m 0 min 0 min 15 W/m 9,7 km/h (2 Bft) 100,00 %
02.01.2019 09:20 3,7 C 3,3 C 2,8 C 90 % 1032,7 hPa 0,0 l/m 0 min 0 min 16 W/m 12,9 km/h (3 Bft) 97,14 %
02.01.2019 09:22 3,7 C 3,3 C 2,8 C 90 % 1032,7 hPa 0,0 l/m 0 min 0 min 17 W/m 12,9 km/h (3 Bft) 98,11 %
02.01.2019 09:24 3,7 C 3,3 C 2,8 C 90 % 1032,8 hPa 0,0 l/m 0 min 0 min 19 W/m 12,9 km/h (3 Bft) 97,87 %
02.01.2019 09:26 3,7 C 3,3 C 2,8 C 90 % 1032,8 hPa 0,0 l/m 0 min 0 min 25 W/m 16,1 km/h (3 Bft) 98,00 %
02.01.2019 09:28 3,7 C 3,3 C 2,8 C 90 % 1032,8 hPa 0,0 l/m 0 min 0 min 25 W/m 16,1 km/h (3 Bft) 95,74 %
02.01.2019 09:30 3,8 C 3,3 C 2,8 C 90 % 1032,8 hPa 0,0 l/m 0 min 0 min 24 W/m 16,1 km/h (3 Bft) 97,87 %
02.01.2019 09:32 3,8 C 3,9 C 2,8 C 90 % 1032,8 hPa 0,0 l/m 0 min 0 min 23 W/m 12,9 km/h (3 Bft) 97,87 %
02.01.2019 09:34 3,8 C 3,3 C 3,3 C 90 % 1032,8 hPa 0,0 l/m 0 min 0 min 27 W/m 16,1 km/h (3 Bft) 95,65 %
02.01.2019 09:36 3,8 C 3,3 C 2,8 C 90 % 1032,7 hPa 0,0 l/m 0 min 0 min 33 W/m 12,9 km/h (3 Bft) 97,96 %
02.01.2019 09:38 3,8 C 3,3 C 2,8 C 90 % 1032,7 hPa 0,0 l/m 0 min 0 min 31 W/m 16,1 km/h (3 Bft) 97,22 %
02.01.2019 09:40 3,8 C 3,3 C 2,8 C 90 % 1032,7 hPa 0,0 l/m 0 min 0 min 27 W/m 19,3 km/h (3 Bft) 97,83 %
02.01.2019 09:42 3,8 C 3,3 C 2,8 C 90 % 1032,8 hPa 0,0 l/m 0 min 0 min 26 W/m 16,1 km/h (3 Bft) 95,74 %
02.01.2019 09:44 3,8 C 3,3 C 2,8 C 90 % 1032,7 hPa 0,0 l/m 0 min 0 min 28 W/m 16,1 km/h (3 Bft) 96,36 %
02.01.2019 09:46 3,8 C 3,3 C 3,3 C 90 % 1032,8 hPa 0,0 l/m 0 min 0 min 33 W/m 12,9 km/h (3 Bft) 97,83 %
02.01.2019 09:48 3,8 C 3,3 C 6,1 C 90 % 1032,7 hPa 0,0 l/m 0 min 0 min 35 W/m 12,9 km/h (3 Bft) 97,87 %
02.01.2019 09:50 3,8 C 3,9 C 10,6 C 90 % 1032,8 hPa 0,0 l/m 0 min 0 min 35 W/m 19,3 km/h (3 Bft) 98,00 %
02.01.2019 09:52 3,8 C 3,9 C 6,7 C 90 % 1032,8 hPa 0,0 l/m 0 min 0 min 35 W/m 16,1 km/h (3 Bft) 97,87 %
02.01.2019 09:54 3,9 C 3,9 C 5,0 C 90 % 1032,9 hPa 0,0 l/m 0 min 0 min 37 W/m 16,1 km/h (3 Bft) 93,75 %
02.01.2019 09:56 3,9 C 3,9 C 3,9 C 90 % 1033,0 hPa 0,0 l/m 0 min 0 min 36 W/m 22,5 km/h (4 Bft) 95,74 %
02.01.2019 09:58 3,9 C 3,9 C 3,3 C 90 % 1033,1 hPa 0,0 l/m 0 min 0 min 49 W/m 19,3 km/h (3 Bft) 95,74 %
02.01.2019 10:00 3,9 C 3,9 C 3,3 C 90 % 1033,1 hPa 0,0 l/m 0 min 0 min 62 W/m 16,1 km/h (3 Bft) 95,65 %
02.01.2019 10:02 3,9 C 3,9 C 3,3 C 90 % 1033,2 hPa 0,0 l/m 0 min 0 min 64 W/m 19,3 km/h (3 Bft) 93,62 %
02.01.2019 10:04 3,9 C 4,4 C 3,3 C 89 % 1033,2 hPa 0,0 l/m 0 min 0 min 68 W/m 9,7 km/h (2 Bft) 91,49 %
02.01.2019 10:06 3,9 C 4,4 C 3,3 C 89 % 1033,1 hPa 0,0 l/m 0 min 0 min 59 W/m 19,3 km/h (3 Bft) 95,74 %
02.01.2019 10:08 3,9 C 3,9 C 3,3 C 89 % 1033,1 hPa 0,0 l/m 0 min 0 min 51 W/m 16,1 km/h (3 Bft) 95,74 %
02.01.2019 10:10 3,9 C 3,9 C 3,3 C 89 % 1033,2 hPa 0,0 l/m 0 min 0 min 56 W/m 19,3 km/h (3 Bft) 95,74 %
02.01.2019 10:12 3,9 C 3,9 C 3,3 C 89 % 1033,3 hPa 0,0 l/m 0 min 0 min 54 W/m 16,1 km/h (3 Bft) 95,65 %
02.01.2019 10:14 3,9 C 3,9 C 3,3 C 89 % 1033,2 hPa 0,0 l/m 0 min 0 min 49 W/m 19,3 km/h (3 Bft) 95,74 %
02.01.2019 10:16 4,0 C 3,9 C 3,3 C 89 % 1033,2 hPa 0,0 l/m 0 min 0 min 49 W/m 16,1 km/h (3 Bft) 95,74 %
02.01.2019 10:18 4,0 C 3,9 C 3,3 C 89 % 1033,2 hPa 0,0 l/m 0 min 0 min 49 W/m 19,3 km/h (3 Bft) 93,62 %
02.01.2019 10:20 4,0 C 3,9 C 3,3 C 89 % 1033,3 hPa 0,0 l/m 0 min 0 min 49 W/m 19,3 km/h (3 Bft) 95,74 %
02.01.2019 10:22 4,1 C 3,9 C 3,3 C 89 % 1033,4 hPa 0,0 l/m 0 min 0 min 46 W/m 19,3 km/h (3 Bft) 95,65 %
02.01.2019 10:24 4,1 C 3,9 C 3,3 C 89 % 1033,3 hPa 0,0 l/m 0 min 0 min 42 W/m 19,3 km/h (3 Bft) 95,74 %
02.01.2019 10:26 4,1 C 3,9 C 3,3 C 89 % 1033,4 hPa 0,0 l/m 0 min 0 min 38 W/m 16,1 km/h (3 Bft) 95,74 %
02.01.2019 10:28 4,1 C 3,9 C 3,3 C 89 % 1033,4 hPa 0,0 l/m 0 min 0 min 36 W/m 16,1 km/h (3 Bft) 95,74 %
02.01.2019 10:30 4,1 C 3,9 C 3,3 C 89 % 1033,4 hPa 0,0 l/m 0 min 0 min 39 W/m 16,1 km/h (3 Bft) 95,74 %
02.01.2019 10:32 4,1 C 3,9 C 3,3 C 89 % 1033,4 hPa 0,0 l/m 0 min 0 min 41 W/m 22,5 km/h (4 Bft) 93,62 %
02.01.2019 10:34 4,1 C 3,9 C 3,3 C 89 % 1033,4 hPa 0,0 l/m 0 min 0 min 45 W/m 16,1 km/h (3 Bft) 93,62 %
02.01.2019 10:36 4,2 C 3,9 C 3,3 C 89 % 1033,3 hPa 0,0 l/m 0 min 0 min 49 W/m 12,9 km/h (3 Bft) 93,48 %
02.01.2019 10:38 4,2 C 3,9 C 3,3 C 89 % 1033,3 hPa 0,0 l/m 0 min 0 min 51 W/m 12,9 km/h (3 Bft) 95,74 %
02.01.2019 10:40 4,2 C 3,9 C 3,3 C 89 % 1033,4 hPa 0,0 l/m 0 min 0 min 50 W/m 22,5 km/h (4 Bft) 95,74 %
02.01.2019 10:42 4,2 C 3,9 C 3,3 C 89 % 1033,5 hPa 0,0 l/m 0 min 0 min 49 W/m 16,1 km/h (3 Bft) 91,49 %
02.01.2019 10:44 4,2 C 3,9 C 3,3 C 89 % 1033,5 hPa 0,0 l/m 0 min 0 min 48 W/m 16,1 km/h (3 Bft) 95,74 %
02.01.2019 10:46 4,2 C 3,9 C 3,3 C 89 % 1033,6 hPa 0,0 l/m 0 min 0 min 44 W/m 9,7 km/h (2 Bft) 93,62 %
02.01.2019 10:48 4,2 C 3,9 C 3,3 C 89 % 1033,6 hPa 0,0 l/m 0 min 0 min 38 W/m 25,7 km/h (4 Bft) 97,83 %
02.01.2019 10:50 4,2 C 3,9 C 3,3 C 89 % 1033,6 hPa 0,0 l/m 0 min 0 min 35 W/m 16,1 km/h (3 Bft) 97,87 %
02.01.2019 10:52 4,2 C 3,9 C 3,3 C 89 % 1033,6 hPa 0,0 l/m 0 min 0 min 34 W/m 22,5 km/h (4 Bft) 100,00 %
02.01.2019 10:54 4,2 C 3,9 C 3,3 C 89 % 1033,6 hPa 0,0 l/m 0 min 0 min 38 W/m 22,5 km/h (4 Bft) 97,87 %
02.01.2019 10:56 4,3 C 3,9 C 3,3 C 89 % 1033,6 hPa 0,0 l/m 0 min 0 min 36 W/m 16,1 km/h (3 Bft) 97,87 %
02.01.2019 10:58 4,3 C 3,9 C 3,3 C 89 % 1033,6 hPa 0,0 l/m 0 min 0 min 43 W/m 16,1 km/h (3 Bft) 100,00 %
02.01.2019 11:00 4,3 C 3,9 C 3,3 C 89 % 1033,5 hPa 0,0 l/m 0 min 0 min 58 W/m 19,3 km/h (3 Bft) 100,00 %
02.01.2019 11:02 4,3 C 4,4 C 3,3 C 89 % 1033,5 hPa 0,0 l/m 0 min 0 min 65 W/m 19,3 km/h (3 Bft) 97,87 %
02.01.2019 11:04 4,3 C 4,4 C 3,9 C 89 % 1033,5 hPa 0,0 l/m 0 min 0 min 69 W/m 16,1 km/h (3 Bft) 97,87 %
02.01.2019 11:06 4,3 C 4,4 C 3,9 C 89 % 1033,5 hPa 0,0 l/m 0 min 0 min 74 W/m 16,1 km/h (3 Bft) 97,87 %
02.01.2019 11:08 4,4 C 4,4 C 3,9 C 89 % 1033,6 hPa 0,0 l/m 0 min 0 min 80 W/m 16,1 km/h (3 Bft) 100,00 %
02.01.2019 11:10 4,4 C 4,4 C 3,9 C 89 % 1033,6 hPa 0,0 l/m 0 min 0 min 88 W/m 19,3 km/h (3 Bft) 100,00 %
02.01.2019 11:12 4,4 C 5,0 C 3,9 C 90 % 1033,5 hPa 0,0 l/m 0 min 0 min 94 W/m 19,3 km/h (3 Bft) 97,87 %
02.01.2019 11:14 4,4 C 5,0 C 3,9 C 90 % 1033,5 hPa 0,0 l/m 0 min 0 min 98 W/m 12,9 km/h (3 Bft) 97,87 %
02.01.2019 11:16 4,4 C 5,0 C 3,9 C 90 % 1033,5 hPa 0,0 l/m 0 min 0 min 99 W/m 12,9 km/h (3 Bft) 100,00 %
02.01.2019 11:18 4,4 C 5,6 C 3,9 C 89 % 1033,5 hPa 0,0 l/m 0 min 0 min 92 W/m 9,7 km/h (2 Bft) 97,87 %
02.01.2019 11:20 4,5 C 5,6 C 3,9 C 89 % 1033,5 hPa 0,0 l/m 0 min 0 min 78 W/m 16,1 km/h (3 Bft) 100,00 %
02.01.2019 11:22 4,5 C 5,0 C 3,9 C 89 % 1033,5 hPa 0,0 l/m 0 min 0 min 73 W/m 16,1 km/h (3 Bft) 100,00 %
02.01.2019 11:24 4,5 C 5,0 C 3,9 C 89 % 1033,5 hPa 0,0 l/m 0 min 0 min 77 W/m 19,3 km/h (3 Bft) 97,87 %
02.01.2019 11:26 4,5 C 5,6 C 3,9 C 89 % 1033,5 hPa 0,0 l/m 0 min 0 min 94 W/m 19,3 km/h (3 Bft) 100,00 %
02.01.2019 11:28 4,5 C 7,2 C 3,9 C 89 % 1033,6 hPa 0,0 l/m 2 min 0 min 157 W/m 12,9 km/h (3 Bft) 100,00 %
02.01.2019 11:30 4,6 C 7,8 C 3,9 C 89 % 1033,5 hPa 0,0 l/m 2 min 0 min 243 W/m 12,9 km/h (3 Bft) 100,00 %
02.01.2019 11:32 4,6 C 8,9 C 4,4 C 89 % 1033,4 hPa 0,0 l/m 2 min 0 min 226 W/m 22,5 km/h (4 Bft) 100,00 %
02.01.2019 11:34 4,7 C 10,0 C 4,4 C 89 % 1033,4 hPa 0,0 l/m 2 min 0 min 317 W/m 25,7 km/h (4 Bft) 100,00 %
02.01.2019 11:36 4,9 C 10,6 C 5,0 C 89 % 1033,5 hPa 0,0 l/m 2 min 0 min 328 W/m 22,5 km/h (4 Bft) 97,87 %
02.01.2019 11:38 5,0 C 11,1 C 5,0 C 89 % 1033,5 hPa 0,0 l/m 2 min 0 min 311 W/m 19,3 km/h (3 Bft) 97,87 %
02.01.2019 11:40 5,2 C 10,0 C 5,0 C 89 % 1033,4 hPa 0,0 l/m 2 min 0 min 249 W/m 25,7 km/h (4 Bft) 100,00 %
02.01.2019 11:42 5,2 C 8,3 C 5,0 C 89 % 1033,4 hPa 0,0 l/m 2 min 0 min 163 W/m 25,7 km/h (4 Bft) 100,00 %
02.01.2019 11:44 5,3 C 7,8 C 5,0 C 88 % 1033,4 hPa 0,0 l/m 0 min 0 min 126 W/m 29,0 km/h (5 Bft) 100,00 %
02.01.2019 11:46 5,3 C 7,2 C 5,0 C 88 % 1033,4 hPa 0,0 l/m 0 min 0 min 112 W/m 16,1 km/h (3 Bft) 97,83 %
02.01.2019 11:48 5,4 C 6,7 C 5,0 C 87 % 1033,5 hPa 0,0 l/m 0 min 0 min 100 W/m 22,5 km/h (4 Bft) 100,00 %
02.01.2019 11:50 5,4 C 6,1 C 4,4 C 87 % 1033,5 hPa 0,0 l/m 0 min 0 min 101 W/m 29,0 km/h (5 Bft) 97,87 %
02.01.2019 11:52 5,4 C 7,2 C 4,4 C 86 % 1033,5 hPa 0,0 l/m 0 min 0 min 123 W/m 25,7 km/h (4 Bft) 100,00 %
02.01.2019 11:54 5,4 C 8,9 C 4,4 C 86 % 1033,5 hPa 0,0 l/m 2 min 0 min 249 W/m 22,5 km/h (4 Bft) 100,00 %
02.01.2019 11:56 5,4 C 10,0 C 4,4 C 86 % 1033,4 hPa 0,0 l/m 2 min 0 min 258 W/m 25,7 km/h (4 Bft) 97,83 %
02.01.2019 11:58 5,5 C 10,0 C 5,0 C 86 % 1033,4 hPa 0,0 l/m 2 min 0 min 264 W/m 25,7 km/h (4 Bft) 100,00 %
02.01.2019 12:00 5,6 C 10,0 C 5,0 C 85 % 1033,5 hPa 0,0 l/m 2 min 0 min 251 W/m 22,5 km/h (4 Bft) 97,87 %
02.01.2019 12:02 5,6 C 9,4 C 5,0 C 85 % 1033,5 hPa 0,0 l/m 2 min 0 min 228 W/m 38,6 km/h (5 Bft) 100,00 %
02.01.2019 12:04 5,7 C 9,4 C 5,0 C 85 % 1033,4 hPa 0,0 l/m 2 min 0 min 159 W/m 19,3 km/h (3 Bft) 100,00 %
02.01.2019 12:08 5,7 C 8,3 C 4,4 C 84 % 1033,5 hPa 0,0 l/m 4 min 0 min 215 W/m 35,4 km/h (5 Bft) 98,92 %
02.01.2019 12:10 5,7 C 8,9 C 4,4 C 84 % 1033,5 hPa 0,0 l/m 2 min 0 min 217 W/m 22,5 km/h (4 Bft) 100,00 %
02.01.2019 12:12 5,8 C 8,3 C 4,4 C 83 % 1033,5 hPa 0,0 l/m 2 min 0 min 221 W/m 38,6 km/h (5 Bft) 100,00 %
02.01.2019 12:14 5,8 C 10,0 C 4,4 C 83 % 1033,5 hPa 0,0 l/m 2 min 0 min 236 W/m 22,5 km/h (4 Bft) 100,00 %
02.01.2019 12:16 5,8 C 10,0 C 5,0 C 83 % 1033,5 hPa 0,0 l/m 2 min 0 min 216 W/m 22,5 km/h (4 Bft) 95,74 %
02.01.2019 12:18 5,9 C 10,6 C 5,0 C 83 % 1033,5 hPa 0,0 l/m 2 min 0 min 263 W/m 19,3 km/h (3 Bft) 95,74 %
02.01.2019 12:20 5,9 C 10,6 C 5,0 C 83 % 1033,5 hPa 0,0 l/m 2 min 0 min 290 W/m 22,5 km/h (4 Bft) 100,00 %
02.01.2019 12:22 6,0 C 10,6 C 6,1 C 83 % 1033,6 hPa 0,0 l/m 2 min 0 min 339 W/m 32,2 km/h (5 Bft) 95,74 %
02.01.2019 12:24 6,1 C 11,7 C 6,7 C 83 % 1033,5 hPa 0,0 l/m 2 min 0 min 353 W/m 22,5 km/h (4 Bft) 100,00 %
02.01.2019 12:26 6,1 C 11,7 C 7,2 C 83 % 1033,5 hPa 0,0 l/m 2 min 0 min 315 W/m 29,0 km/h (5 Bft) 100,00 %
02.01.2019 12:28 6,2 C 11,1 C 7,2 C 83 % 1033,5 hPa 0,0 l/m 2 min 0 min 294 W/m 29,0 km/h (5 Bft) 93,62 %
02.01.2019 12:30 6,2 C 8,9 C 6,1 C 83 % 1033,5 hPa 0,0 l/m 0 min 0 min 87 W/m 22,5 km/h (4 Bft) 97,87 %
02.01.2019 12:32 6,2 C 7,2 C 5,6 C 82 % 1033,5 hPa 0,0 l/m 0 min 0 min 60 W/m 29,0 km/h (5 Bft) 95,65 %
02.01.2019 12:34 6,2 C 6,7 C 5,0 C 82 % 1033,5 hPa 0,0 l/m 0 min 0 min 58 W/m 25,7 km/h (4 Bft) 97,87 %
02.01.2019 12:36 6,1 C 6,7 C 5,0 C 81 % 1033,5 hPa 0,0 l/m 0 min 0 min 90 W/m 19,3 km/h (3 Bft) 95,74 %
02.01.2019 12:38 6,1 C 8,3 C 5,0 C 82 % 1033,5 hPa 0,0 l/m 2 min 0 min 170 W/m 19,3 km/h (3 Bft) 93,62 %
02.01.2019 12:40 6,1 C 10,0 C 5,6 C 82 % 1033,5 hPa 0,0 l/m 2 min 0 min 214 W/m 22,5 km/h (4 Bft) 91,49 %
02.01.2019 12:42 6,1 C 10,6 C 5,0 C 82 % 1033,5 hPa 0,0 l/m 2 min 0 min 251 W/m 22,5 km/h (4 Bft) 93,62 %
02.01.2019 12:44 6,2 C 11,7 C 5,0 C 82 % 1033,5 hPa 0,0 l/m 2 min 0 min 265 W/m 22,5 km/h (4 Bft) 95,83 %
02.01.2019 12:46 6,3 C 12,2 C 5,6 C 82 % 1033,5 hPa 0,0 l/m 2 min 0 min 269 W/m 19,3 km/h (3 Bft) 93,62 %
02.01.2019 12:48 6,3 C 11,7 C 5,6 C 81 % 1033,5 hPa 0,0 l/m 2 min 0 min 264 W/m 29,0 km/h (5 Bft) 91,49 %
02.01.2019 12:50 6,4 C 12,2 C 5,6 C 81 % 1033,5 hPa 0,0 l/m 2 min 0 min 268 W/m 19,3 km/h (3 Bft) 93,48 %
02.01.2019 12:52 6,4 C 11,7 C 5,6 C 81 % 1033,5 hPa 0,0 l/m 2 min 0 min 270 W/m 32,2 km/h (5 Bft) 93,62 %
02.01.2019 12:54 6,5 C 12,2 C 5,6 C 81 % 1033,5 hPa 0,0 l/m 2 min 0 min 275 W/m 32,2 km/h (5 Bft) 91,49 %
02.01.2019 12:56 6,6 C 11,7 C 5,6 C 80 % 1033,5 hPa 0,0 l/m 2 min 0 min 279 W/m 32,2 km/h (5 Bft) 93,62 %
02.01.2019 12:58 6,6 C 12,2 C 5,6 C 79 % 1033,5 hPa 0,0 l/m 2 min 0 min 283 W/m 35,4 km/h (5 Bft) 91,49 %
02.01.2019 13:00 6,7 C 11,7 C 5,6 C 79 % 1033,4 hPa 0,0 l/m 2 min 0 min 284 W/m 35,4 km/h (5 Bft) 93,62 %
02.01.2019 13:02 6,7 C 12,2 C 5,6 C 78 % 1033,4 hPa 0,0 l/m 2 min 0 min 290 W/m 19,3 km/h (3 Bft) 93,48 %
02.01.2019 13:04 6,8 C 13,3 C 5,6 C 78 % 1033,4 hPa 0,0 l/m 2 min 0 min 317 W/m 25,7 km/h (4 Bft) 93,62 %
02.01.2019 13:06 6,9 C 12,8 C 6,1 C 78 % 1033,4 hPa 0,0 l/m 2 min 0 min 323 W/m 38,6 km/h (5 Bft) 95,74 %
02.01.2019 13:08 6,9 C 12,8 C 6,1 C 78 % 1033,5 hPa 0,0 l/m 2 min 0 min 323 W/m 32,2 km/h (5 Bft) 93,62 %
02.01.2019 13:10 7,1 C 12,8 C 6,1 C 78 % 1033,4 hPa 0,0 l/m 2 min 0 min 281 W/m 25,7 km/h (4 Bft) 95,74 %
02.01.2019 13:12 7,1 C 12,2 C 6,1 C 78 % 1033,4 hPa 0,0 l/m 2 min 0 min 289 W/m 41,8 km/h (6 Bft) 93,62 %
02.01.2019 13:14 7,1 C 12,2 C 6,1 C 77 % 1033,3 hPa 0,0 l/m 2 min 0 min 278 W/m 29,0 km/h (5 Bft) 95,65 %
02.01.2019 13:16 7,2 C 12,2 C 6,1 C 77 % 1033,4 hPa 0,0 l/m 2 min 0 min 285 W/m 25,7 km/h (4 Bft) 95,74 %
02.01.2019 13:18 7,2 C 11,7 C 5,6 C 77 % 1033,4 hPa 0,0 l/m 2 min 0 min 260 W/m 22,5 km/h (4 Bft) 91,49 %
02.01.2019 13:20 7,2 C 11,7 C 5,6 C 76 % 1033,3 hPa 0,0 l/m 2 min 0 min 166 W/m 29,0 km/h (5 Bft) 87,23 %
02.01.2019 13:22 7,2 C 11,7 C 5,6 C 76 % 1033,4 hPa 0,0 l/m 2 min 0 min 255 W/m 25,7 km/h (4 Bft) 97,87 %
02.01.2019 13:24 7,2 C 11,7 C 5,6 C 76 % 1033,4 hPa 0,0 l/m 2 min 0 min 253 W/m 22,5 km/h (4 Bft) 95,74 %
02.01.2019 13:26 7,2 C 11,7 C 5,6 C 76 % 1033,4 hPa 0,0 l/m 2 min 0 min 242 W/m 25,7 km/h (4 Bft) 95,65 %
02.01.2019 13:28 7,2 C 12,2 C 6,1 C 76 % 1033,4 hPa 0,0 l/m 2 min 0 min 263 W/m 29,0 km/h (5 Bft) 93,62 %
02.01.2019 13:30 7,2 C 12,2 C 5,6 C 76 % 1033,5 hPa 0,0 l/m 2 min 0 min 261 W/m 29,0 km/h (5 Bft) 95,74 %
02.01.2019 13:32 7,2 C 12,2 C 5,6 C 76 % 1033,5 hPa 0,0 l/m 2 min 0 min 260 W/m 19,3 km/h (3 Bft) 95,74 %
02.01.2019 13:34 7,3 C 12,2 C 5,6 C 76 % 1033,4 hPa 0,0 l/m 2 min 0 min 268 W/m 22,5 km/h (4 Bft) 97,87 %
02.01.2019 13:36 7,3 C 12,8 C 5,6 C 76 % 1033,5 hPa 0,0 l/m 2 min 0 min 257 W/m 19,3 km/h (3 Bft) 97,87 %
02.01.2019 13:38 7,3 C 12,8 C 5,6 C 76 % 1033,5 hPa 0,0 l/m 2 min 0 min 249 W/m 22,5 km/h (4 Bft) 95,65 %
02.01.2019 13:40 7,3 C 11,7 C 5,6 C 76 % 1033,5 hPa 0,0 l/m 2 min 0 min 241 W/m 25,7 km/h (4 Bft) 97,87 %
02.01.2019 13:42 7,3 C 11,7 C 5,6 C 75 % 1033,5 hPa 0,0 l/m 2 min 0 min 244 W/m 22,5 km/h (4 Bft) 97,87 %
02.01.2019 13:44 7,3 C 12,2 C 5,6 C 76 % 1033,4 hPa 0,0 l/m 2 min 0 min 258 W/m 22,5 km/h (4 Bft) 97,87 %
02.01.2019 13:46 7,3 C 11,7 C 5,6 C 75 % 1033,4 hPa 0,0 l/m 2 min 0 min 254 W/m 29,0 km/h (5 Bft) 97,87 %
02.01.2019 13:48 7,3 C 11,7 C 5,6 C 75 % 1033,4 hPa 0,0 l/m 2 min 0 min 262 W/m 29,0 km/h (5 Bft) 97,87 %
02.01.2019 13:50 7,3 C 11,7 C 5,6 C 75 % 1033,5 hPa 0,0 l/m 2 min 0 min 260 W/m 22,5 km/h (4 Bft) 97,83 %
02.01.2019 13:52 7,3 C 11,1 C 6,1 C 75 % 1033,4 hPa 0,0 l/m 2 min 0 min 238 W/m 29,0 km/h (5 Bft) 97,87 %
02.01.2019 13:54 7,3 C 11,7 C 5,6 C 75 % 1033,4 hPa 0,0 l/m 2 min 0 min 239 W/m 25,7 km/h (4 Bft) 97,87 %
02.01.2019 13:56 7,3 C 12,2 C 5,6 C 75 % 1033,4 hPa 0,0 l/m 2 min 0 min 255 W/m 19,3 km/h (3 Bft) 97,87 %
02.01.2019 13:58 7,3 C 11,1 C 6,1 C 75 % 1033,4 hPa 0,0 l/m 2 min 0 min 172 W/m 19,3 km/h (3 Bft) 97,87 %
02.01.2019 14:00 7,3 C 11,1 C 6,1 C 75 % 1033,5 hPa 0,0 l/m 2 min 0 min 252 W/m 32,2 km/h (5 Bft) 95,74 %
02.01.2019 14:02 7,3 C 11,1 C 6,1 C 75 % 1033,5 hPa 0,0 l/m 2 min 0 min 252 W/m 35,4 km/h (5 Bft) 95,65 %
02.01.2019 14:04 7,3 C 11,1 C 6,1 C 75 % 1033,5 hPa 0,0 l/m 2 min 0 min 226 W/m 19,3 km/h (3 Bft) 95,74 %
02.01.2019 14:06 7,3 C 9,4 C 5,6 C 75 % 1033,5 hPa 0,0 l/m 2 min 0 min 169 W/m 25,7 km/h (4 Bft) 97,87 %
02.01.2019 14:08 7,3 C 8,3 C 5,6 C 74 % 1033,6 hPa 0,0 l/m 0 min 0 min 115 W/m 22,5 km/h (4 Bft) 100,00 %
02.01.2019 14:10 7,2 C 9,4 C 6,1 C 74 % 1033,6 hPa 0,0 l/m 2 min 0 min 149 W/m 25,7 km/h (4 Bft) 97,87 %
02.01.2019 14:12 7,2 C 9,4 C 6,1 C 74 % 1033,5 hPa 0,0 l/m 2 min 0 min 185 W/m 32,2 km/h (5 Bft) 100,00 %
02.01.2019 14:14 7,2 C 8,3 C 6,1 C 74 % 1033,6 hPa 0,0 l/m 0 min 0 min 112 W/m 16,1 km/h (3 Bft) 100,00 %
02.01.2019 14:16 7,2 C 7,8 C 6,1 C 74 % 1033,5 hPa 0,0 l/m 0 min 0 min 101 W/m 19,3 km/h (3 Bft) 97,87 %
02.01.2019 14:18 7,1 C 7,8 C 6,1 C 74 % 1033,6 hPa 0,0 l/m 2 min 0 min 134 W/m 22,5 km/h (4 Bft) 100,00 %
02.01.2019 14:20 7,1 C 7,2 C 5,6 C 74 % 1033,5 hPa 0,0 l/m 2 min 0 min 140 W/m 29,0 km/h (5 Bft) 100,00 %
02.01.2019 14:22 7,0 C 7,2 C 5,6 C 73 % 1033,6 hPa 0,0 l/m 0 min 0 min 90 W/m 29,0 km/h (5 Bft) 97,87 %
02.01.2019 14:24 6,9 C 8,3 C 5,6 C 72 % 1033,6 hPa 0,0 l/m 2 min 0 min 137 W/m 22,5 km/h (4 Bft) 100,00 %
02.01.2019 14:26 6,9 C 8,3 C 5,6 C 72 % 1033,6 hPa 0,0 l/m 2 min 0 min 152 W/m 16,1 km/h (3 Bft) 100,00 %
02.01.2019 14:28 6,8 C 7,8 C 5,6 C 73 % 1033,6 hPa 0,0 l/m 0 min 0 min 65 W/m 25,7 km/h (4 Bft) 100,00 %
02.01.2019 14:30 6,8 C 6,7 C 5,0 C 73 % 1033,7 hPa 0,0 l/m 0 min 0 min 47 W/m 29,0 km/h (5 Bft) 100,00 %
02.01.2019 14:32 6,7 C 6,7 C 5,0 C 74 % 1033,6 hPa 0,0 l/m 0 min 0 min 54 W/m 16,1 km/h (3 Bft) 100,00 %
02.01.2019 14:34 6,7 C 7,2 C 4,4 C 74 % 1033,7 hPa 0,0 l/m 0 min 0 min 75 W/m 19,3 km/h (3 Bft) 100,00 %
02.01.2019 14:36 6,6 C 8,3 C 5,0 C 75 % 1033,7 hPa 0,0 l/m 2 min 0 min 152 W/m 16,1 km/h (3 Bft) 100,00 %
02.01.2019 14:38 6,6 C 8,9 C 4,4 C 75 % 1033,6 hPa 0,0 l/m 2 min 0 min 152 W/m 22,5 km/h (4 Bft) 100,00 %
02.01.2019 14:40 6,5 C 8,3 C 4,4 C 75 % 1033,7 hPa 0,0 l/m 0 min 0 min 70 W/m 16,1 km/h (3 Bft) 95,74 %
02.01.2019 14:42 6,4 C 8,3 C 4,4 C 75 % 1033,7 hPa 0,0 l/m 2 min 0 min 155 W/m 22,5 km/h (4 Bft) 100,00 %
02.01.2019 14:44 6,4 C 7,8 C 5,0 C 75 % 1033,7 hPa 0,0 l/m 2 min 0 min 156 W/m 16,1 km/h (3 Bft) 100,00 %
02.01.2019 14:46 6,4 C 7,2 C 4,4 C 75 % 1033,7 hPa 0,0 l/m 2 min 0 min 113 W/m 25,7 km/h (4 Bft) 97,87 %
02.01.2019 14:48 6,4 C 6,7 C 5,0 C 75 % 1033,7 hPa 0,0 l/m 0 min 0 min 90 W/m 19,3 km/h (3 Bft) 100,00 %
02.01.2019 14:50 6,4 C 6,7 C 5,0 C 76 % 1033,7 hPa 0,0 l/m 0 min 0 min 72 W/m 19,3 km/h (3 Bft) 97,14 %
02.01.2019 14:52 6,4 C 6,1 C 4,4 C 76 % 1033,7 hPa 0,0 l/m 0 min 0 min 53 W/m 22,5 km/h (4 Bft) 100,00 %
02.01.2019 14:54 6,3 C 6,1 C 4,4 C 76 % 1033,8 hPa 0,0 l/m 0 min 0 min 51 W/m 19,3 km/h (3 Bft) 100,00 %
02.01.2019 14:56 6,2 C 6,1 C 4,4 C 76 % 1033,8 hPa 0,0 l/m 0 min 0 min 50 W/m 16,1 km/h (3 Bft) 93,62 %
02.01.2019 14:58 6,2 C 5,6 C 4,4 C 75 % 1033,8 hPa 0,0 l/m 0 min 0 min 41 W/m 19,3 km/h (3 Bft) 100,00 %
02.01.2019 15:00 6,2 C 5,6 C 4,4 C 76 % 1033,8 hPa 0,0 l/m 0 min 0 min 37 W/m 25,7 km/h (4 Bft) 91,49 %
02.01.2019 15:02 6,1 C 5,6 C 4,4 C 76 % 1033,8 hPa 0,0 l/m 0 min 0 min 37 W/m 22,5 km/h (4 Bft) 97,87 %
02.01.2019 15:04 6,1 C 5,6 C 4,4 C 75 % 1033,9 hPa 0,0 l/m 0 min 0 min 34 W/m 19,3 km/h (3 Bft) 97,87 %
02.01.2019 15:06 6,0 C 5,0 C 3,9 C 76 % 1034,0 hPa 0,0 l/m 0 min 0 min 33 W/m 19,3 km/h (3 Bft) 98,28 %
02.01.2019 15:08 5,9 C 5,0 C 3,9 C 76 % 1034,0 hPa 0,0 l/m 0 min 0 min 32 W/m 19,3 km/h (3 Bft) 97,14 %
02.01.2019 15:10 5,9 C 5,0 C 3,9 C 76 % 1034,1 hPa 0,0 l/m 0 min 0 min 33 W/m 35,4 km/h (5 Bft) 97,87 %
02.01.2019 15:12 5,8 C 5,0 C 3,9 C 76 % 1034,1 hPa 0,0 l/m 0 min 0 min 37 W/m 29,0 km/h (5 Bft) 97,87 %
02.01.2019 15:14 5,8 C 5,0 C 3,9 C 76 % 1034,1 hPa 0,0 l/m 0 min 0 min 40 W/m 22,5 km/h (4 Bft) 97,87 %
02.01.2019 15:16 5,7 C 5,0 C 3,9 C 76 % 1034,1 hPa 0,0 l/m 0 min 0 min 40 W/m 19,3 km/h (3 Bft) 97,87 %
02.01.2019 15:18 5,7 C 5,0 C 3,9 C 76 % 1034,2 hPa 0,0 l/m 0 min 0 min 38 W/m 16,1 km/h (3 Bft) 93,48 %
02.01.2019 15:20 5,6 C 5,0 C 3,9 C 76 % 1034,2 hPa 0,0 l/m 0 min 0 min 37 W/m 19,3 km/h (3 Bft) 95,74 %
02.01.2019 15:22 5,6 C 5,0 C 3,9 C 76 % 1034,2 hPa 0,0 l/m 0 min 0 min 36 W/m 12,9 km/h (3 Bft) 89,36 %
02.01.2019 15:24 5,6 C 5,0 C 3,9 C 77 % 1034,2 hPa 0,0 l/m 0 min 0 min 33 W/m 22,5 km/h (4 Bft) 95,74 %
02.01.2019 15:26 5,5 C 5,0 C 3,9 C 77 % 1034,3 hPa 0,0 l/m 0 min 0 min 32 W/m 12,9 km/h (3 Bft) 95,74 %
02.01.2019 15:28 5,5 C 5,0 C 3,3 C 77 % 1034,3 hPa 0,0 l/m 0 min 0 min 30 W/m 16,1 km/h (3 Bft) 95,74 %
02.01.2019 15:30 5,4 C 4,4 C 3,3 C 77 % 1034,3 hPa 0,0 l/m 0 min 0 min 28 W/m 12,9 km/h (3 Bft) 95,65 %
02.01.2019 15:32 5,4 C 4,4 C 3,3 C 77 % 1034,4 hPa 0,0 l/m 0 min 0 min 26 W/m 16,1 km/h (3 Bft) 91,49 %
02.01.2019 15:34 5,4 C 4,4 C 3,3 C 77 % 1034,3 hPa 0,0 l/m 0 min 0 min 27 W/m 12,9 km/h (3 Bft) 93,62 %
02.01.2019 15:36 5,3 C 4,4 C 3,3 C 77 % 1034,3 hPa 0,0 l/m 0 min 0 min 28 W/m 9,7 km/h (2 Bft) 96,61 %
02.01.2019 15:38 5,3 C 4,4 C 3,3 C 78 % 1034,3 hPa 0,0 l/m 0 min 0 min 28 W/m 12,9 km/h (3 Bft) 94,29 %
02.01.2019 15:40 5,3 C 4,4 C 3,3 C 78 % 1034,3 hPa 0,0 l/m 0 min 0 min 26 W/m 12,9 km/h (3 Bft) 95,74 %
02.01.2019 15:42 5,2 C 4,4 C 3,3 C 78 % 1034,4 hPa 0,0 l/m 0 min 0 min 26 W/m 12,9 km/h (3 Bft) 95,65 %
02.01.2019 15:44 5,2 C 4,4 C 3,3 C 78 % 1034,4 hPa 0,0 l/m 0 min 0 min 25 W/m 12,9 km/h (3 Bft) 93,62 %
02.01.2019 15:46 5,2 C 4,4 C 3,3 C 78 % 1034,3 hPa 0,0 l/m 0 min 0 min 25 W/m 12,9 km/h (3 Bft) 95,74 %
02.01.2019 15:48 5,1 C 4,4 C 3,3 C 78 % 1034,3 hPa 0,0 l/m 0 min 0 min 24 W/m 29,0 km/h (5 Bft) 95,74 %
02.01.2019 15:50 5,1 C 4,4 C 3,3 C 78 % 1034,2 hPa 0,0 l/m 0 min 0 min 23 W/m 22,5 km/h (4 Bft) 97,87 %
02.01.2019 15:52 5,0 C 4,4 C 3,3 C 78 % 1034,2 hPa 0,0 l/m 0 min 0 min 23 W/m 12,9 km/h (3 Bft) 95,65 %
02.01.2019 15:54 5,0 C 4,4 C 3,3 C 78 % 1034,2 hPa 0,0 l/m 0 min 0 min 23 W/m 12,9 km/h (3 Bft) 97,87 %
02.01.2019 15:56 4,9 C 4,4 C 2,8 C 78 % 1034,2 hPa 0,0 l/m 0 min 0 min 25 W/m 9,7 km/h (2 Bft) 97,87 %
02.01.2019 15:58 4,9 C 3,9 C 2,8 C 78 % 1034,3 hPa 0,0 l/m 0 min 0 min 23 W/m 12,9 km/h (3 Bft) 97,87 %
02.01.2019 16:00 4,9 C 3,9 C 2,8 C 78 % 1034,2 hPa 0,0 l/m 0 min 0 min 23 W/m 9,7 km/h (2 Bft) 95,74 %
02.01.2019 16:02 4,9 C 3,9 C 2,8 C 78 % 1034,3 hPa 0,0 l/m 0 min 0 min 20 W/m 9,7 km/h (2 Bft) 93,62 %
02.01.2019 16:04 4,9 C 3,9 C 2,8 C 78 % 1034,3 hPa 0,0 l/m 0 min 0 min 19 W/m 9,7 km/h (2 Bft) 97,83 %
02.01.2019 16:06 4,8 C 3,9 C 2,8 C 78 % 1034,3 hPa 0,0 l/m 0 min 0 min 17 W/m 9,7 km/h (2 Bft) 97,87 %
02.01.2019 16:08 4,8 C 3,9 C 2,8 C 78 % 1034,4 hPa 0,0 l/m 0 min 0 min 15 W/m 9,7 km/h (2 Bft) 97,87 %
02.01.2019 16:10 4,8 C 3,9 C 2,2 C 78 % 1034,4 hPa 0,0 l/m 0 min 0 min 14 W/m 16,1 km/h (3 Bft) 95,74 %
02.01.2019 16:12 4,7 C 3,9 C 2,2 C 77 % 1034,5 hPa 0,0 l/m 0 min 0 min 13 W/m 16,1 km/h (3 Bft) 93,62 %
02.01.2019 16:14 4,7 C 3,3 C 2,2 C 77 % 1034,4 hPa 0,0 l/m 0 min 0 min 12 W/m 9,7 km/h (2 Bft) 95,74 %
02.01.2019 16:16 4,7 C 3,3 C 2,2 C 77 % 1034,4 hPa 0,0 l/m 0 min 0 min 12 W/m 12,9 km/h (3 Bft) 95,65 %
02.01.2019 16:18 4,6 C 3,3 C 2,2 C 77 % 1034,3 hPa 0,0 l/m 0 min 0 min 11 W/m 9,7 km/h (2 Bft) 95,74 %
02.01.2019 16:20 4,6 C 3,3 C 2,2 C 78 % 1034,4 hPa 0,0 l/m 0 min 0 min 11 W/m 9,7 km/h (2 Bft) 93,62 %
02.01.2019 16:22 4,6 C 3,3 C 2,2 C 78 % 1034,5 hPa 0,0 l/m 0 min 0 min 11 W/m 6,4 km/h (2 Bft) 95,74 %
02.01.2019 16:24 4,6 C 3,3 C 2,2 C 78 % 1034,5 hPa 0,0 l/m 0 min 0 min 10 W/m 6,4 km/h (2 Bft) 95,74 %
02.01.2019 16:26 4,5 C 3,3 C 2,2 C 78 % 1034,5 hPa 0,0 l/m 0 min 0 min 9 W/m 6,4 km/h (2 Bft) 95,74 %
02.01.2019 16:28 4,5 C 3,3 C 2,2 C 78 % 1034,5 hPa 0,0 l/m 0 min 0 min 11 W/m 6,4 km/h (2 Bft) 97,83 %
02.01.2019 16:30 4,4 C 3,3 C 2,2 C 78 % 1034,6 hPa 0,0 l/m 0 min 0 min 11 W/m 6,4 km/h (2 Bft) 97,87 %
02.01.2019 16:32 4,4 C 3,3 C 1,7 C 78 % 1034,6 hPa 0,0 l/m 0 min 0 min 7 W/m 3,2 km/h (1 Bft) 95,74 %
02.01.2019 16:34 4,4 C 2,8 C 1,7 C 78 % 1034,6 hPa 0,0 l/m 0 min 0 min 6 W/m 9,7 km/h (2 Bft) 95,74 %
02.01.2019 16:36 4,3 C 2,8 C 1,7 C 78 % 1034,7 hPa 0,0 l/m 0 min 0 min 5 W/m 6,4 km/h (2 Bft) 93,62 %
02.01.2019 16:38 4,3 C 2,8 C 2,2 C 78 % 1034,6 hPa 0,0 l/m 0 min 0 min 1 W/m 9,7 km/h (2 Bft) 97,87 %
02.01.2019 16:40 4,3 C 2,8 C 2,2 C 79 % 1034,6 hPa 0,0 l/m 0 min 0 min 0 W/m 6,4 km/h (2 Bft) 97,83 %
02.01.2019 16:42 4,3 C 3,3 C 2,2 C 79 % 1034,7 hPa 0,0 l/m 0 min 0 min 0 W/m 6,4 km/h (2 Bft) 97,87 %
02.01.2019 16:44 4,2 C 3,3 C 2,2 C 79 % 1034,7 hPa 0,0 l/m 0 min 0 min 0 W/m 9,7 km/h (2 Bft) 97,87 %
02.01.2019 16:46 4,2 C 3,3 C 2,2 C 79 % 1034,7 hPa 0,0 l/m 0 min 0 min 0 W/m 12,9 km/h (3 Bft) 95,74 %
02.01.2019 16:48 4,2 C 3,3 C 2,2 C 79 % 1034,7 hPa 0,0 l/m 0 min 0 min 0 W/m 12,9 km/h (3 Bft) 100,00 %
02.01.2019 16:50 4,2 C 3,3 C 2,8 C 79 % 1034,7 hPa 0,0 l/m 0 min 0 min 0 W/m 12,9 km/h (3 Bft) 100,00 %
02.01.2019 16:52 4,2 C 3,3 C 2,8 C 80 % 1034,9 hPa 0,0 l/m 0 min 0 min 0 W/m 9,7 km/h (2 Bft) 100,00 %
02.01.2019 16:54 4,2 C 3,3 C 2,8 C 80 % 1034,8 hPa 0,0 l/m 0 min 0 min 0 W/m 6,4 km/h (2 Bft) 100,00 %
02.01.2019 16:56 4,2 C 3,3 C 2,8 C 80 % 1034,8 hPa 0,0 l/m 0 min 0 min 0 W/m 9,7 km/h (2 Bft) 100,00 %
02.01.2019 16:58 4,1 C 3,3 C 2,8 C 80 % 1034,9 hPa 0,0 l/m 0 min 0 min 0 W/m 6,4 km/h (2 Bft) 97,87 %
02.01.2019 17:00 4,1 C 3,3 C 2,8 C 80 % 1034,9 hPa 0,0 l/m 0 min 0 min 0 W/m 6,4 km/h (2 Bft) 100,00 %
02.01.2019 17:02 4,1 C 3,3 C 2,8 C 80 % 1034,8 hPa 0,0 l/m 0 min 0 min 0 W/m 12,9 km/h (3 Bft) 100,00 %
02.01.2019 17:04 4,1 C 3,3 C 2,8 C 81 % 1034,9 hPa 0,0 l/m 0 min 0 min 0 W/m 6,4 km/h (2 Bft) 100,00 %
02.01.2019 17:06 4,1 C 3,3 C 2,8 C 81 % 1035,0 hPa 0,0 l/m 0 min 0 min 0 W/m 9,7 km/h (2 Bft) 97,87 %
02.01.2019 17:08 4,1 C 3,3 C 2,8 C 81 % 1035,0 hPa 0,0 l/m 0 min 0 min 0 W/m 9,7 km/h (2 Bft) 100,00 %
02.01.2019 17:10 4,1 C 3,3 C 2,2 C 81 % 1034,9 hPa 0,0 l/m 0 min 0 min 0 W/m 6,4 km/h (2 Bft) 100,00 %
02.01.2019 17:12 4,1 C 3,3 C 2,2 C 81 % 1034,9 hPa 0,0 l/m 0 min 0 min 0 W/m 6,4 km/h (2 Bft) 100,00 %
02.01.2019 17:14 4,1 C 3,3 C 2,2 C 81 % 1035,0 hPa 0,0 l/m 0 min 0 min 0 W/m 12,9 km/h (3 Bft) 100,00 %
02.01.2019 17:16 4,1 C 3,3 C 2,2 C 81 % 1035,0 hPa 0,0 l/m 0 min 0 min 0 W/m 6,4 km/h (2 Bft) 100,00 %
02.01.2019 17:18 4,1 C 3,3 C 2,2 C 81 % 1035,0 hPa 0,0 l/m 0 min 0 min 0 W/m 6,4 km/h (2 Bft) 100,00 %
02.01.2019 17:20 4,1 C 3,3 C 2,2 C 81 % 1035,0 hPa 0,0 l/m 0 min 0 min 0 W/m 6,4 km/h (2 Bft) 100,00 %
02.01.2019 17:22 4,1 C 3,3 C 2,2 C 81 % 1035,0 hPa 0,0 l/m 0 min 0 min 0 W/m 6,4 km/h (2 Bft) 100,00 %
02.01.2019 17:24 4,1 C 3,3 C 2,2 C 81 % 1035,1 hPa 0,0 l/m 0 min 0 min 0 W/m 6,4 km/h (2 Bft) 97,87 %
02.01.2019 17:26 4,1 C 3,3 C 2,2 C 81 % 1035,2 hPa 0,0 l/m 0 min 0 min 0 W/m 3,2 km/h (1 Bft) 100,00 %
02.01.2019 17:28 4,1 C 3,3 C 2,2 C 81 % 1035,2 hPa 0,0 l/m 0 min 0 min 0 W/m 6,4 km/h (2 Bft) 100,00 %
02.01.2019 17:30 4,1 C 3,3 C 2,2 C 81 % 1035,1 hPa 0,0 l/m 0 min 0 min 0 W/m 12,9 km/h (3 Bft) 100,00 %
02.01.2019 17:32 4,0 C 3,3 C 2,2 C 81 % 1035,1 hPa 0,0 l/m 0 min 0 min 0 W/m 6,4 km/h (2 Bft) 97,87 %
02.01.2019 17:34 4,0 C 3,3 C 2,2 C 81 % 1035,2 hPa 0,0 l/m 0 min 0 min 0 W/m 6,4 km/h (2 Bft) 100,00 %
02.01.2019 17:36 4,0 C 3,3 C 2,8 C 81 % 1035,2 hPa 0,0 l/m 0 min 0 min 0 W/m 9,7 km/h (2 Bft) 100,00 %
02.01.2019 17:38 4,0 C 3,3 C 2,8 C 81 % 1035,2 hPa 0,0 l/m 0 min 0 min 0 W/m 6,4 km/h (2 Bft) 97,83 %
02.01.2019 17:40 4,0 C 3,3 C 2,2 C 81 % 1035,3 hPa 0,0 l/m 0 min 0 min 0 W/m 6,4 km/h (2 Bft) 100,00 %
02.01.2019 17:42 4,0 C 3,3 C 2,2 C 81 % 1035,3 hPa 0,0 l/m 0 min 0 min 0 W/m 6,4 km/h (2 Bft) 100,00 %
02.01.2019 17:44 4,0 C 3,3 C 2,2 C 81 % 1035,3 hPa 0,0 l/m 0 min 0 min 0 W/m 6,4 km/h (2 Bft) 97,87 %
02.01.2019 17:46 4,0 C 2,8 C 2,2 C 81 % 1035,3 hPa 0,0 l/m 0 min 0 min 0 W/m 3,2 km/h (1 Bft) 100,00 %
02.01.2019 17:48 4,0 C 2,8 C 1,7 C 81 % 1035,3 hPa 0,0 l/m 0 min 0 min 0 W/m 9,7 km/h (2 Bft) 100,00 %
02.01.2019 17:50 3,9 C 2,8 C 1,7 C 81 % 1035,4 hPa 0,0 l/m 0 min 0 min 0 W/m 3,2 km/h (1 Bft) 97,83 %
02.01.2019 17:52 3,9 C 2,8 C 1,7 C 81 % 1035,4 hPa 0,0 l/m 0 min 0 min 0 W/m 0,0 km/h (0 Bft) 97,87 %
02.01.2019 17:54 3,9 C 2,2 C 1,1 C 81 % 1035,4 hPa 0,0 l/m 0 min 0 min 0 W/m 3,2 km/h (1 Bft) 100,00 %
02.01.2019 17:56 3,9 C 2,2 C 1,1 C 81 % 1035,4 hPa 0,0 l/m 0 min 0 min 0 W/m 3,2 km/h (1 Bft) 100,00 %
02.01.2019 17:58 3,9 C 2,2 C 1,1 C 81 % 1035,4 hPa 0,0 l/m 0 min 0 min 0 W/m 6,4 km/h (2 Bft) 100,00 %
02.01.2019 18:00 3,8 C 2,2 C 1,1 C 81 % 1035,4 hPa 0,0 l/m 0 min 0 min 0 W/m 6,4 km/h (2 Bft) 95,74 %
02.01.2019 18:02 3,8 C 1,7 C 1,1 C 81 % 1035,4 hPa 0,0 l/m 0 min 0 min 0 W/m 6,4 km/h (2 Bft) 93,88 %
02.01.2019 18:04 3,8 C 1,7 C 0,6 C 81 % 1035,4 hPa 0,0 l/m 0 min 0 min 0 W/m 6,4 km/h (2 Bft) 97,87 %
02.01.2019 18:08 3,7 C 1,7 C 0,6 C 81 % 1035,3 hPa 0,0 l/m 0 min 0 min 0 W/m 6,4 km/h (2 Bft) 94,68 %
02.01.2019 18:10 3,7 C 1,7 C 0,6 C 81 % 1035,3 hPa 0,0 l/m 0 min 0 min 0 W/m 9,7 km/h (2 Bft) 93,62 %
02.01.2019 18:12 3,6 C 1,7 C 0,6 C 81 % 1035,3 hPa 0,0 l/m 0 min 0 min 0 W/m 6,4 km/h (2 Bft) 95,65 %
02.01.2019 18:14 3,6 C 1,7 C 0,6 C 81 % 1035,3 hPa 0,0 l/m 0 min 0 min 0 W/m 6,4 km/h (2 Bft) 95,74 %
02.01.2019 18:16 3,5 C 1,7 C 0,6 C 81 % 1035,3 hPa 0,0 l/m 0 min 0 min 0 W/m 3,2 km/h (1 Bft) 93,62 %
02.01.2019 18:18 3,4 C 1,7 C 0,6 C 82 % 1035,3 hPa 0,0 l/m 0 min 0 min 0 W/m 3,2 km/h (1 Bft) 95,74 %
02.01.2019 18:20 3,4 C 1,7 C 0,6 C 82 % 1035,4 hPa 0,0 l/m 0 min 0 min 0 W/m 3,2 km/h (1 Bft) 95,74 %
02.01.2019 18:22 3,4 C 1,7 C 0,6 C 82 % 1035,4 hPa 0,0 l/m 0 min 0 min 0 W/m 6,4 km/h (2 Bft) 95,74 %
02.01.2019 18:24 3,3 C 1,7 C 0,6 C 82 % 1035,4 hPa 0,0 l/m 0 min 0 min 0 W/m 6,4 km/h (2 Bft) 95,65 %
02.01.2019 18:26 3,3 C 1,7 C 0,6 C 82 % 1035,4 hPa 0,0 l/m 0 min 0 min 0 W/m 6,4 km/h (2 Bft) 95,74 %
02.01.2019 18:28 3,3 C 1,7 C 0,6 C 82 % 1035,4 hPa 0,0 l/m 0 min 0 min 0 W/m 3,2 km/h (1 Bft) 91,49 %
02.01.2019 18:30 3,2 C 1,7 C 0,0 C 82 % 1035,5 hPa 0,0 l/m 0 min 0 min 0 W/m 6,4 km/h (2 Bft) 95,74 %
02.01.2019 18:32 3,2 C 1,1 C 0,0 C 82 % 1035,5 hPa 0,0 l/m 0 min 0 min 0 W/m 6,4 km/h (2 Bft) 95,74 %
02.01.2019 18:34 3,1 C 1,1 C 0,0 C 82 % 1035,5 hPa 0,0 l/m 0 min 0 min 0 W/m 6,4 km/h (2 Bft) 95,65 %
02.01.2019 18:36 3,1 C 1,1 C 0,0 C 82 % 1035,6 hPa 0,0 l/m 0 min 0 min 0 W/m 6,4 km/h (2 Bft) 93,62 %
02.01.2019 18:38 3,0 C 1,7 C 0,6 C 82 % 1035,6 hPa 0,0 l/m 0 min 0 min 0 W/m 12,9 km/h (3 Bft) 95,74 %
02.01.2019 18:40 2,9 C 1,7 C 0,6 C 82 % 1035,5 hPa 0,0 l/m 0 min 0 min 0 W/m 9,7 km/h (2 Bft) 95,74 %
02.01.2019 18:42 2,9 C 1,7 C 0,6 C 83 % 1035,6 hPa 0,0 l/m 0 min 0 min 0 W/m 9,7 km/h (2 Bft) 95,74 %
02.01.2019 18:44 2,9 C 1,7 C 0,6 C 83 % 1035,6 hPa 0,0 l/m 0 min 0 min 0 W/m 16,1 km/h (3 Bft) 95,74 %
02.01.2019 18:46 2,8 C 1,7 C 0,6 C 83 % 1035,6 hPa 0,0 l/m 0 min 0 min 0 W/m 6,4 km/h (2 Bft) 100,00 %
02.01.2019 18:48 2,8 C 1,7 C 0,6 C 83 % 1035,6 hPa 0,0 l/m 0 min 0 min 0 W/m 6,4 km/h (2 Bft) 97,87 %
02.01.2019 18:50 2,8 C 1,1 C 0,6 C 83 % 1035,6 hPa 0,0 l/m 0 min 0 min 0 W/m 3,2 km/h (1 Bft) 97,87 %
02.01.2019 18:52 2,7 C 1,1 C 0,0 C 83 % 1035,7 hPa 0,0 l/m 0 min 0 min 0 W/m 3,2 km/h (1 Bft) 95,74 %
02.01.2019 18:54 2,7 C 1,7 C 0,0 C 83 % 1035,7 hPa 0,0 l/m 0 min 0 min 0 W/m 0,0 km/h (0 Bft) 97,87 %
02.01.2019 18:56 2,7 C 1,1 C 0,0 C 83 % 1035,7 hPa 0,0 l/m 0 min 0 min 0 W/m 3,2 km/h (1 Bft) 100,00 %
02.01.2019 18:58 2,7 C 1,1 C 0,0 C 83 % 1035,7 hPa 0,0 l/m 0 min 0 min 0 W/m 3,2 km/h (1 Bft) 100,00 %
02.01.2019 19:00 2,6 C 1,1 C 0,0 C 83 % 1035,7 hPa 0,0 l/m 0 min 0 min 0 W/m 0,0 km/h (0 Bft) 97,87 %
02.01.2019 19:02 2,6 C 1,1 C 0,0 C 83 % 1035,7 hPa 0,0 l/m 0 min 0 min 0 W/m 0,0 km/h (0 Bft) 97,87 %
02.01.2019 19:04 2,6 C 1,1 C 0,0 C 83 % 1035,7 hPa 0,0 l/m 0 min 0 min 0 W/m 0,0 km/h (0 Bft) 100,00 %
02.01.2019 19:06 2,5 C 1,1 C 0,0 C 83 % 1035,7 hPa 0,0 l/m 0 min 0 min 0 W/m 3,2 km/h (1 Bft) 100,00 %
02.01.2019 19:08 2,5 C 1,1 C -0,6 C 83 % 1035,7 hPa 0,0 l/m 0 min 0 min 0 W/m 3,2 km/h (1 Bft) 100,00 %
02.01.2019 19:10 2,4 C 0,6 C -0,6 C 83 % 1035,7 hPa 0,0 l/m 0 min 0 min 0 W/m 3,2 km/h (1 Bft) 97,83 %
02.01.2019 19:12 2,4 C 0,6 C -0,6 C 83 % 1035,8 hPa 0,0 l/m 0 min 0 min 0 W/m 3,2 km/h (1 Bft) 100,00 %
02.01.2019 19:14 2,4 C 0,6 C -0,6 C 83 % 1035,8 hPa 0,0 l/m 0 min 0 min 0 W/m 0,0 km/h (0 Bft) 100,00 %
02.01.2019 19:16 2,3 C 0,6 C -0,6 C 83 % 1035,8 hPa 0,0 l/m 0 min 0 min 0 W/m 0,0 km/h (0 Bft) 100,00 %
02.01.2019 19:18 2,3 C 0,6 C -0,6 C 83 % 1035,8 hPa 0,0 l/m 0 min 0 min 0 W/m 6,4 km/h (2 Bft) 100,00 %
02.01.2019 19:20 2,3 C 0,6 C -0,6 C 84 % 1035,8 hPa 0,0 l/m 0 min 0 min 0 W/m 3,2 km/h (1 Bft) 100,00 %
02.01.2019 19:22 2,2 C 0,6 C -0,6 C 84 % 1035,8 hPa 0,0 l/m 0 min 0 min 0 W/m 6,4 km/h (2 Bft) 97,83 %
02.01.2019 19:24 2,2 C 0,6 C -0,6 C 83 % 1035,8 hPa 0,0 l/m 0 min 0 min 0 W/m 6,4 km/h (2 Bft) 95,74 %
02.01.2019 19:26 2,1 C 0,6 C -0,6 C 84 % 1035,8 hPa 0,0 l/m 0 min 0 min 0 W/m 6,4 km/h (2 Bft) 95,74 %
02.01.2019 19:28 2,1 C 0,6 C -0,6 C 84 % 1035,8 hPa 0,0 l/m 0 min 0 min 0 W/m 3,2 km/h (1 Bft) 97,87 %
02.01.2019 19:30 2,0 C 0,6 C -0,6 C 84 % 1035,8 hPa 0,0 l/m 0 min 0 min 0 W/m 6,4 km/h (2 Bft) 97,87 %
02.01.2019 19:32 2,0 C 0,6 C -0,6 C 84 % 1035,9 hPa 0,0 l/m 0 min 0 min 0 W/m 3,2 km/h (1 Bft) 97,87 %
02.01.2019 19:34 1,9 C 0,6 C -0,6 C 84 % 1035,9 hPa 0,0 l/m 0 min 0 min 0 W/m 3,2 km/h (1 Bft) 97,83 %
02.01.2019 19:36 1,9 C 0,6 C -0,6 C 84 % 1035,9 hPa 0,0 l/m 0 min 0 min 0 W/m 3,2 km/h (1 Bft) 97,87 %
02.01.2019 19:38 1,9 C 0,6 C -0,6 C 85 % 1035,9 hPa 0,0 l/m 0 min 0 min 0 W/m 3,2 km/h (1 Bft) 93,62 %
02.01.2019 19:40 1,8 C 0,6 C -0,6 C 85 % 1035,9 hPa 0,0 l/m 0 min 0 min 0 W/m 3,2 km/h (1 Bft) 95,74 %
02.01.2019 19:42 1,8 C 0,6 C -0,6 C 85 % 1036,0 hPa 0,0 l/m 0 min 0 min 0 W/m 6,4 km/h (2 Bft) 97,87 %
02.01.2019 19:44 1,8 C 0,6 C -0,6 C 85 % 1036,0 hPa 0,0 l/m 0 min 0 min 0 W/m 0,0 km/h (0 Bft) 97,83 %
02.01.2019 19:46 1,7 C 0,6 C -0,6 C 85 % 1036,0 hPa 0,0 l/m 0 min 0 min 0 W/m 3,2 km/h (1 Bft) 97,87 %
02.01.2019 19:48 1,7 C 0,0 C -0,6 C 85 % 1036,0 hPa 0,0 l/m 0 min 0 min 0 W/m 6,4 km/h (2 Bft) 95,74 %
02.01.2019 19:50 1,7 C 0,0 C -0,6 C 85 % 1036,0 hPa 0,0 l/m 0 min 0 min 0 W/m 3,2 km/h (1 Bft) 95,74 %
02.01.2019 19:52 1,6 C 0,0 C -0,6 C 85 % 1036,0 hPa 0,0 l/m 0 min 0 min 0 W/m 3,2 km/h (1 Bft) 95,74 %
02.01.2019 19:54 1,6 C 0,0 C -0,6 C 85 % 1036,1 hPa 0,0 l/m 0 min 0 min 0 W/m 3,2 km/h (1 Bft) 97,87 %
02.01.2019 19:56 1,6 C 0,0 C -0,6 C 85 % 1036,1 hPa 0,0 l/m 0 min 0 min 0 W/m 3,2 km/h (1 Bft) 95,65 %
02.01.2019 19:58 1,5 C 0,0 C -0,6 C 85 % 1036,0 hPa 0,0 l/m 0 min 0 min 0 W/m 3,2 km/h (1 Bft) 95,74 %
02.01.2019 20:00 1,4 C 0,6 C -0,6 C 85 % 1036,0 hPa 0,0 l/m 0 min 0 min 0 W/m 3,2 km/h (1 Bft) 95,74 %
02.01.2019 20:02 1,4 C 0,0 C -0,6 C 85 % 1036,1 hPa 0,0 l/m 0 min 0 min 0 W/m 3,2 km/h (1 Bft) 95,74 %
02.01.2019 20:04 1,4 C 0,0 C -1,1 C 85 % 1036,1 hPa 0,0 l/m 0 min 0 min 0 W/m 0,0 km/h (0 Bft) 95,74 %
02.01.2019 20:06 1,4 C 0,0 C -1,1 C 86 % 1036,1 hPa 0,0 l/m 0 min 0 min 0 W/m 0,0 km/h (0 Bft) 97,87 %
02.01.2019 20:08 1,4 C 0,0 C -1,1 C 86 % 1036,1 hPa 0,0 l/m 0 min 0 min 0 W/m 3,2 km/h (1 Bft) 95,65 %
02.01.2019 20:10 1,3 C 0,0 C -0,6 C 86 % 1036,1 hPa 0,0 l/m 0 min 0 min 0 W/m 6,4 km/h (2 Bft) 93,62 %
02.01.2019 20:12 1,3 C 0,0 C -0,6 C 86 % 1036,1 hPa 0,0 l/m 0 min 0 min 0 W/m 3,2 km/h (1 Bft) 95,74 %
02.01.2019 20:14 1,3 C 0,0 C -0,6 C 86 % 1036,1 hPa 0,0 l/m 0 min 0 min 0 W/m 3,2 km/h (1 Bft) 95,74 %
02.01.2019 20:16 1,2 C 0,0 C -0,6 C 86 % 1036,1 hPa 0,0 l/m 0 min 0 min 0 W/m 3,2 km/h (1 Bft) 95,74 %
02.01.2019 20:18 1,2 C 0,0 C -1,1 C 86 % 1036,1 hPa 0,0 l/m 0 min 0 min 0 W/m 3,2 km/h (1 Bft) 93,62 %
02.01.2019 20:20 1,2 C 0,0 C -1,1 C 86 % 1036,1 hPa 0,0 l/m 0 min 0 min 0 W/m 3,2 km/h (1 Bft) 95,65 %
02.01.2019 20:22 1,2 C 0,0 C -0,6 C 86 % 1036,1 hPa 0,0 l/m 0 min 0 min 0 W/m 3,2 km/h (1 Bft) 95,74 %
02.01.2019 20:24 1,1 C 0,0 C -0,6 C 86 % 1036,2 hPa 0,0 l/m 0 min 0 min 0 W/m 6,4 km/h (2 Bft) 95,74 %
02.01.2019 20:26 1,1 C 0,0 C -0,6 C 86 % 1036,2 hPa 0,0 l/m 0 min 0 min 0 W/m 3,2 km/h (1 Bft) 93,62 %
02.01.2019 20:28 1,1 C 0,0 C -1,1 C 86 % 1036,2 hPa 0,0 l/m 0 min 0 min 0 W/m 0,0 km/h (0 Bft) 95,74 %
02.01.2019 20:30 1,1 C 0,0 C -1,1 C 86 % 1036,2 hPa 0,0 l/m 0 min 0 min 0 W/m 0,0 km/h (0 Bft) 97,87 %
02.01.2019 20:32 1,0 C 0,0 C -1,1 C 86 % 1036,2 hPa 0,0 l/m 0 min 0 min 0 W/m 0,0 km/h (0 Bft) 95,65 %
02.01.2019 20:34 1,0 C 0,0 C -1,1 C 86 % 1036,2 hPa 0,0 l/m 0 min 0 min 0 W/m 3,2 km/h (1 Bft) 97,87 %
02.01.2019 20:36 0,9 C 0,0 C -1,1 C 86 % 1036,2 hPa 0,0 l/m 0 min 0 min 0 W/m 3,2 km/h (1 Bft) 95,74 %
02.01.2019 20:38 0,9 C 0,0 C -1,1 C 86 % 1036,2 hPa 0,0 l/m 0 min 0 min 0 W/m 3,2 km/h (1 Bft) 97,87 %
02.01.2019 20:40 0,9 C -0,6 C -1,1 C 86 % 1036,2 hPa 0,0 l/m 0 min 0 min 0 W/m 3,2 km/h (1 Bft) 97,87 %
02.01.2019 20:42 0,9 C -0,6 C -1,1 C 86 % 1036,2 hPa 0,0 l/m 0 min 0 min 0 W/m 3,2 km/h (1 Bft) 97,87 %
02.01.2019 20:44 0,9 C -0,6 C -1,7 C 86 % 1036,2 hPa 0,0 l/m 0 min 0 min 0 W/m 3,2 km/h (1 Bft) 95,65 %
02.01.2019 20:46 0,8 C -0,6 C -1,7 C 86 % 1036,2 hPa 0,0 l/m 0 min 0 min 0 W/m 3,2 km/h (1 Bft) 97,87 %
02.01.2019 20:48 0,8 C -0,6 C -1,7 C 86 % 1036,3 hPa 0,0 l/m 0 min 0 min 0 W/m 3,2 km/h (1 Bft) 95,74 %
02.01.2019 20:50 0,8 C -0,6 C -1,7 C 86 % 1036,2 hPa 0,0 l/m 0 min 0 min 0 W/m 3,2 km/h (1 Bft) 97,87 %
02.01.2019 20:52 0,8 C 0,0 C -1,1 C 86 % 1036,3 hPa 0,0 l/m 0 min 0 min 0 W/m 3,2 km/h (1 Bft) 97,87 %
02.01.2019 20:54 0,7 C 0,0 C -1,1 C 86 % 1036,2 hPa 0,0 l/m 0 min 0 min 0 W/m 3,2 km/h (1 Bft) 97,87 %
02.01.2019 20:56 0,7 C 0,0 C -1,1 C 86 % 1036,3 hPa 0,0 l/m 0 min 0 min 0 W/m 3,2 km/h (1 Bft) 100,00 %
02.01.2019 20:58 0,7 C 0,0 C -1,1 C 86 % 1036,3 hPa 0,0 l/m 0 min 0 min 0 W/m 3,2 km/h (1 Bft) 100,00 %
02.01.2019 21:00 0,7 C 0,0 C -1,1 C 86 % 1036,2 hPa 0,0 l/m 0 min 0 min 0 W/m 3,2 km/h (1 Bft) 100,00 %
02.01.2019 21:02 0,7 C 0,0 C -1,1 C 86 % 1036,3 hPa 0,0 l/m 0 min 0 min 0 W/m 3,2 km/h (1 Bft) 100,00 %
02.01.2019 21:04 0,7 C 0,0 C -1,1 C 86 % 1036,3 hPa 0,0 l/m 0 min 0 min 0 W/m 3,2 km/h (1 Bft) 100,00 %
02.01.2019 21:06 0,7 C 0,0 C -1,1 C 87 % 1036,3 hPa 0,0 l/m 0 min 0 min 0 W/m 0,0 km/h (0 Bft) 97,83 %
02.01.2019 21:08 0,6 C 0,0 C -1,1 C 87 % 1036,3 hPa 0,0 l/m 0 min 0 min 0 W/m 3,2 km/h (1 Bft) 95,74 %
02.01.2019 21:10 0,6 C 0,0 C -0,6 C 87 % 1036,3 hPa 0,0 l/m 0 min 0 min 0 W/m 3,2 km/h (1 Bft) 100,00 %
02.01.2019 21:12 0,6 C 0,0 C -0,6 C 87 % 1036,3 hPa 0,0 l/m 0 min 0 min 0 W/m 3,2 km/h (1 Bft) 97,87 %
02.01.2019 21:14 0,6 C 0,0 C -0,6 C 87 % 1036,3 hPa 0,0 l/m 0 min 0 min 0 W/m 6,4 km/h (2 Bft) 97,87 %
02.01.2019 21:16 0,6 C 0,0 C -0,6 C 87 % 1036,4 hPa 0,0 l/m 0 min 0 min 0 W/m 3,2 km/h (1 Bft) 100,00 %
02.01.2019 21:18 0,6 C 0,0 C -0,6 C 87 % 1036,4 hPa 0,0 l/m 0 min 0 min 0 W/m 3,2 km/h (1 Bft) 100,00 %
02.01.2019 21:20 0,6 C 0,0 C -0,6 C 87 % 1036,3 hPa 0,0 l/m 0 min 0 min 0 W/m 3,2 km/h (1 Bft) 97,87 %
02.01.2019 21:22 0,6 C 0,0 C -0,6 C 87 % 1036,3 hPa 0,0 l/m 0 min 0 min 0 W/m 3,2 km/h (1 Bft) 97,87 %
02.01.2019 21:24 0,6 C 0,0 C -0,6 C 87 % 1036,2 hPa 0,0 l/m 0 min 0 min 0 W/m 3,2 km/h (1 Bft) 97,87 %
02.01.2019 21:26 0,6 C 0,0 C -0,6 C 87 % 1036,3 hPa 0,0 l/m 0 min 0 min 0 W/m 3,2 km/h (1 Bft) 97,87 %
02.01.2019 21:28 0,6 C 0,0 C -0,6 C 88 % 1036,3 hPa 0,0 l/m 0 min 0 min 0 W/m 3,2 km/h (1 Bft) 97,87 %
02.01.2019 21:30 0,6 C 0,0 C -0,6 C 88 % 1036,2 hPa 0,0 l/m 0 min 0 min 0 W/m 3,2 km/h (1 Bft) 97,83 %
02.01.2019 21:32 0,6 C 0,0 C -0,6 C 88 % 1036,3 hPa 0,0 l/m 0 min 0 min 0 W/m 6,4 km/h (2 Bft) 95,74 %
02.01.2019 21:34 0,6 C 0,0 C -0,6 C 88 % 1036,3 hPa 0,0 l/m 0 min 0 min 0 W/m 3,2 km/h (1 Bft) 97,87 %
02.01.2019 21:36 0,6 C 0,0 C -0,6 C 88 % 1036,2 hPa 0,0 l/m 0 min 0 min 0 W/m 3,2 km/h (1 Bft) 97,87 %
02.01.2019 21:38 0,6 C 0,0 C -0,6 C 88 % 1036,2 hPa 0,0 l/m 0 min 0 min 0 W/m 3,2 km/h (1 Bft) 93,62 %
02.01.2019 21:40 0,6 C 0,0 C -0,6 C 88 % 1036,3 hPa 0,0 l/m 0 min 0 min 0 W/m 3,2 km/h (1 Bft) 97,87 %
02.01.2019 21:42 0,6 C 0,0 C -0,6 C 88 % 1036,2 hPa 0,0 l/m 0 min 0 min 0 W/m 3,2 km/h (1 Bft) 97,83 %
02.01.2019 21:44 0,6 C 0,0 C -0,6 C 88 % 1036,2 hPa 0,0 l/m 0 min 0 min 0 W/m 0,0 km/h (0 Bft) 97,87 %
02.01.2019 21:46 0,6 C 0,0 C -0,6 C 88 % 1036,2 hPa 0,0 l/m 0 min 0 min 0 W/m 3,2 km/h (1 Bft) 97,87 %
02.01.2019 21:48 0,6 C 0,0 C -0,6 C 88 % 1036,2 hPa 0,0 l/m 0 min 0 min 0 W/m 3,2 km/h (1 Bft) 95,74 %
02.01.2019 21:50 0,6 C 0,0 C -0,6 C 88 % 1036,2 hPa 0,0 l/m 0 min 0 min 0 W/m 3,2 km/h (1 Bft) 93,62 %
02.01.2019 21:52 0,6 C 0,0 C -0,6 C 88 % 1036,2 hPa 0,0 l/m 0 min 0 min 0 W/m 0,0 km/h (0 Bft) 95,74 %
02.01.2019 21:54 0,6 C 0,0 C -0,6 C 88 % 1036,1 hPa 0,0 l/m 0 min 0 min 0 W/m 3,2 km/h (1 Bft) 93,48 %
02.01.2019 21:56 0,6 C 0,0 C -0,6 C 88 % 1036,1 hPa 0,0 l/m 0 min 0 min 0 W/m 3,2 km/h (1 Bft) 93,62 %
02.01.2019 21:58 0,6 C 0,0 C -0,6 C 88 % 1036,1 hPa 0,0 l/m 0 min 0 min 0 W/m 3,2 km/h (1 Bft) 93,62 %
02.01.2019 22:00 0,6 C 0,0 C -0,6 C 88 % 1036,0 hPa 0,0 l/m 0 min 0 min 0 W/m 3,2 km/h (1 Bft) 95,74 %
02.01.2019 22:02 0,6 C 0,0 C -0,6 C 89 % 1036,0 hPa 0,0 l/m 0 min 0 min 0 W/m 3,2 km/h (1 Bft) 91,49 %
02.01.2019 22:04 0,6 C 0,0 C -0,6 C 89 % 1036,1 hPa 0,0 l/m 0 min 0 min 0 W/m 3,2 km/h (1 Bft) 95,65 %
02.01.2019 22:06 0,6 C 0,0 C -0,6 C 89 % 1036,0 hPa 0,0 l/m 0 min 0 min 0 W/m 3,2 km/h (1 Bft) 95,74 %
02.01.2019 22:08 0,6 C 0,0 C -0,6 C 89 % 1036,0 hPa 0,0 l/m 0 min 0 min 0 W/m 3,2 km/h (1 Bft) 95,74 %
02.01.2019 22:10 0,6 C 0,0 C -0,6 C 89 % 1036,0 hPa 0,0 l/m 0 min 0 min 0 W/m 3,2 km/h (1 Bft) 97,87 %
02.01.2019 22:12 0,6 C 0,0 C -0,6 C 89 % 1036,0 hPa 0,0 l/m 0 min 0 min 0 W/m 3,2 km/h (1 Bft) 97,87 %
02.01.2019 22:14 0,7 C 0,0 C -0,6 C 89 % 1036,0 hPa 0,0 l/m 0 min 0 min 0 W/m 3,2 km/h (1 Bft) 97,87 %
02.01.2019 22:16 0,7 C 0,0 C -0,6 C 89 % 1036,0 hPa 0,0 l/m 0 min 0 min 0 W/m 3,2 km/h (1 Bft) 97,87 %
02.01.2019 22:18 0,6 C 0,0 C -0,6 C 89 % 1036,0 hPa 0,0 l/m 0 min 0 min 0 W/m 3,2 km/h (1 Bft) 97,83 %
02.01.2019 22:20 0,6 C 0,0 C -0,6 C 90 % 1036,0 hPa 0,0 l/m 0 min 0 min 0 W/m 3,2 km/h (1 Bft) 100,00 %
02.01.2019 22:22 0,6 C 0,0 C -0,6 C 90 % 1036,0 hPa 0,0 l/m 0 min 0 min 0 W/m 3,2 km/h (1 Bft) 100,00 %
02.01.2019 22:24 0,6 C 0,0 C -0,6 C 90 % 1036,0 hPa 0,0 l/m 0 min 0 min 0 W/m 3,2 km/h (1 Bft) 100,00 %
02.01.2019 22:26 0,6 C -0,6 C -0,6 C 90 % 1036,1 hPa 0,0 l/m 0 min 0 min 0 W/m 3,2 km/h (1 Bft) 100,00 %
02.01.2019 22:28 0,6 C 0,0 C -1,1 C 90 % 1036,0 hPa 0,0 l/m 0 min 0 min 0 W/m 3,2 km/h (1 Bft) 97,83 %
02.01.2019 22:30 0,6 C 0,0 C -1,1 C 90 % 1036,0 hPa 0,0 l/m 0 min 0 min 0 W/m 3,2 km/h (1 Bft) 100,00 %
02.01.2019 22:32 0,6 C -0,6 C -1,1 C 90 % 1036,0 hPa 0,0 l/m 0 min 0 min 0 W/m 3,2 km/h (1 Bft) 100,00 %
02.01.2019 22:34 0,6 C -0,6 C -1,1 C 90 % 1036,0 hPa 0,0 l/m 0 min 0 min 0 W/m 3,2 km/h (1 Bft) 100,00 %
02.01.2019 22:36 0,6 C -0,6 C -1,7 C 90 % 1036,0 hPa 0,0 l/m 0 min 0 min 0 W/m 3,2 km/h (1 Bft) 95,74 %
02.01.2019 22:38 0,5 C -0,6 C -1,7 C 90 % 1035,9 hPa 0,0 l/m 0 min 0 min 0 W/m 3,2 km/h (1 Bft) 100,00 %
02.01.2019 22:40 0,5 C -0,6 C -1,7 C 90 % 1035,9 hPa 0,0 l/m 0 min 0 min 0 W/m 3,2 km/h (1 Bft) 100,00 %
02.01.2019 22:42 0,5 C -0,6 C -1,7 C 90 % 1035,9 hPa 0,0 l/m 0 min 0 min 0 W/m 3,2 km/h (1 Bft) 100,00 %
02.01.2019 22:44 0,5 C -0,6 C -1,7 C 90 % 1035,9 hPa 0,0 l/m 0 min 0 min 0 W/m 3,2 km/h (1 Bft) 100,00 %
02.01.2019 22:46 0,5 C -1,1 C -1,7 C 90 % 1036,0 hPa 0,0 l/m 0 min 0 min 0 W/m 0,0 km/h (0 Bft) 100,00 %
02.01.2019 22:48 0,5 C -0,6 C -1,7 C 90 % 1035,9 hPa 0,0 l/m 0 min 0 min 0 W/m 3,2 km/h (1 Bft) 100,00 %
02.01.2019 22:50 0,5 C -1,1 C -1,7 C 90 % 1035,9 hPa 0,0 l/m 0 min 0 min 0 W/m 0,0 km/h (0 Bft) 97,87 %
02.01.2019 22:52 0,5 C -1,1 C -2,2 C 90 % 1035,9 hPa 0,0 l/m 0 min 0 min 0 W/m 0,0 km/h (0 Bft) 100,00 %
02.01.2019 22:54 0,5 C -1,1 C -2,2 C 90 % 1035,9 hPa 0,0 l/m 0 min 0 min 0 W/m 3,2 km/h (1 Bft) 97,87 %
02.01.2019 22:56 0,5 C -1,1 C -2,2 C 90 % 1035,9 hPa 0,0 l/m 0 min 0 min 0 W/m 3,2 km/h (1 Bft) 100,00 %
02.01.2019 22:58 0,4 C -1,1 C -2,2 C 90 % 1035,9 hPa 0,0 l/m 0 min 0 min 0 W/m 3,2 km/h (1 Bft) 100,00 %
02.01.2019 23:00 0,4 C -1,1 C -2,2 C 90 % 1035,9 hPa 0,0 l/m 0 min 0 min 0 W/m 3,2 km/h (1 Bft) 100,00 %
02.01.2019 23:02 0,4 C -1,1 C -2,2 C 90 % 1035,9 hPa 0,0 l/m 0 min 0 min 0 W/m 3,2 km/h (1 Bft) 95,74 %
02.01.2019 23:04 0,4 C -1,1 C -2,2 C 90 % 1035,9 hPa 0,0 l/m 0 min 0 min 0 W/m 3,2 km/h (1 Bft) 100,00 %
02.01.2019 23:06 0,3 C -1,1 C -2,2 C 90 % 1035,9 hPa 0,0 l/m 0 min 0 min 0 W/m 3,2 km/h (1 Bft) 97,87 %
02.01.2019 23:08 0,3 C -1,1 C -2,2 C 90 % 1035,9 hPa 0,0 l/m 0 min 0 min 0 W/m 3,2 km/h (1 Bft) 100,00 %
02.01.2019 23:10 0,3 C -1,1 C -1,7 C 90 % 1035,8 hPa 0,0 l/m 0 min 0 min 0 W/m 6,4 km/h (2 Bft) 100,00 %
02.01.2019 23:12 0,2 C -1,1 C -1,7 C 90 % 1035,9 hPa 0,0 l/m 0 min 0 min 0 W/m 3,2 km/h (1 Bft) 100,00 %
02.01.2019 23:14 0,2 C -1,1 C -1,7 C 90 % 1035,8 hPa 0,0 l/m 0 min 0 min 0 W/m 3,2 km/h (1 Bft) 100,00 %
02.01.2019 23:16 0,2 C -1,1 C -2,2 C 90 % 1035,8 hPa 0,0 l/m 0 min 0 min 0 W/m 3,2 km/h (1 Bft) 100,00 %
02.01.2019 23:18 0,2 C -1,1 C -2,2 C 90 % 1035,8 hPa 0,0 l/m 0 min 0 min 0 W/m 3,2 km/h (1 Bft) 100,00 %
02.01.2019 23:20 0,2 C -1,1 C -2,2 C 90 % 1035,8 hPa 0,0 l/m 0 min 0 min 0 W/m 3,2 km/h (1 Bft) 100,00 %
02.01.2019 23:22 0,1 C -1,1 C -2,2 C 90 % 1035,9 hPa 0,0 l/m 0 min 0 min 0 W/m 3,2 km/h (1 Bft) 100,00 %
02.01.2019 23:24 0,1 C -1,1 C -2,2 C 90 % 1035,8 hPa 0,0 l/m 0 min 0 min 0 W/m 3,2 km/h (1 Bft) 100,00 %
02.01.2019 23:26 0,1 C -1,1 C -2,2 C 90 % 1035,8 hPa 0,0 l/m 0 min 0 min 0 W/m 3,2 km/h (1 Bft) 100,00 %
02.01.2019 23:28 0,1 C -1,1 C -2,2 C 90 % 1035,9 hPa 0,0 l/m 0 min 0 min 0 W/m 3,2 km/h (1 Bft) 97,87 %
02.01.2019 23:30 0,1 C -1,1 C -2,2 C 90 % 1035,8 hPa 0,0 l/m 0 min 0 min 0 W/m 0,0 km/h (0 Bft) 97,87 %
02.01.2019 23:32 0,1 C -1,1 C -2,2 C 90 % 1035,8 hPa 0,0 l/m 0 min 0 min 0 W/m 3,2 km/h (1 Bft) 100,00 %
02.01.2019 23:34 0,0 C -1,1 C -2,2 C 91 % 1036,0 hPa 0,0 l/m 0 min 0 min 0 W/m 3,2 km/h (1 Bft) 100,00 %
02.01.2019 23:36 0,0 C -1,1 C -2,2 C 91 % 1036,0 hPa 0,0 l/m 0 min 0 min 0 W/m 3,2 km/h (1 Bft) 100,00 %
02.01.2019 23:38 0,0 C -1,1 C -2,2 C 91 % 1036,0 hPa 0,0 l/m 0 min 0 min 0 W/m 0,0 km/h (0 Bft) 97,83 %
02.01.2019 23:40 0,0 C -1,1 C -1,7 C 91 % 1036,0 hPa 0,0 l/m 0 min 0 min 0 W/m 3,2 km/h (1 Bft) 95,74 %
02.01.2019 23:42 0,0 C -1,1 C -1,7 C 91 % 1036,0 hPa 0,0 l/m 0 min 0 min 0 W/m 3,2 km/h (1 Bft) 97,87 %
02.01.2019 23:44 0,0 C -0,6 C -1,7 C 91 % 1036,0 hPa 0,0 l/m 0 min 0 min 0 W/m 6,4 km/h (2 Bft) 97,87 %
02.01.2019 23:46 0,0 C -0,6 C -1,1 C 91 % 1036,0 hPa 0,0 l/m 0 min 0 min 0 W/m 3,2 km/h (1 Bft) 95,74 %
02.01.2019 23:48 0,0 C -0,6 C -1,1 C 91 % 1036,1 hPa 0,0 l/m 0 min 0 min 0 W/m 3,2 km/h (1 Bft) 95,74 %
02.01.2019 23:50 0,0 C -0,6 C -1,1 C 91 % 1036,0 hPa 0,0 l/m 0 min 0 min 0 W/m 3,2 km/h (1 Bft) 95,65 %
02.01.2019 23:52 0,0 C -0,6 C -1,1 C 91 % 1036,0 hPa 0,0 l/m 0 min 0 min 0 W/m 3,2 km/h (1 Bft) 97,87 %
02.01.2019 23:54 0,1 C 0,0 C -0,6 C 91 % 1035,9 hPa 0,0 l/m 0 min 0 min 0 W/m 3,2 km/h (1 Bft) 97,87 %
02.01.2019 23:56 0,1 C 0,0 C -0,6 C 91 % 1035,9 hPa 0,0 l/m 0 min 0 min 0 W/m 3,2 km/h (1 Bft) 97,87 %
02.01.2019 23:58 0,1 C 0,0 C -0,6 C 91 % 1036,0 hPa 0,0 l/m 0 min 0 min 0 W/m 6,4 km/h (2 Bft) 97,87 %
_ Min-Zeit 23:34 22:46 22:52 14:24 00:00 - - - - 17:52 03:42
Minimum _ 0,0 C -1,1 C -2,2 C 72 % 1029,1 hPa - - - - 0,0 km/h (0 Bft) 63,04 %
_ Max-Zeit 13:34 13:04 09:50 23:34 21:16 00:00 12:08 00:07 12:24 13:12 00:24
Maximum _ 7,3 C 13,3 C 10,6 C 91 % 1036,4 hPa 0,0 l/m 4 min 3 min 353 W/m 41,8 km/h
W-NW (6 Bft)
100,00 %
Durchschnitt _ 3,6 C 3,5 C 2,2 C 84 % 1033,2 hPa #0,0 l/m #2:44 h #9 min. 110 W/m 13,2 km/h (3 Bft) 96,15 %
© 2019 W. Hausmann